| time (UTC) | temp F | wind direction | speed MPH | gust MPH | rain 1hr in | rain 24hr in | rain mn in | humidity % | barometer mb |
| 20260502130702 | 71 | 40 | 13.0 | 0.0 | 0.00 | 0.00 | 0.00 | 36 | 1019.9 |
| 20260502130601 | 71 | 35 | 10.0 | 0.0 | 0.00 | 0.00 | 0.00 | 36 | 1019.9 |
| 20260502130502 | 71 | 35 | 10.0 | 0.0 | 0.00 | 0.00 | 0.00 | 36 | 1020.0 |
| 20260502130401 | 71 | 35 | 10.0 | 0.0 | 0.00 | 0.00 | 0.00 | 36 | 1020.0 |
| 20260502130302 | 71 | 40 | 14.0 | 0.0 | 0.00 | 0.00 | 0.00 | 35 | 1020.0 |
| 20260502130201 | 71 | 40 | 14.0 | 0.0 | 0.00 | 0.00 | 0.00 | 35 | 1020.0 |
| 20260502123802 | 71 | 37 | 9.0 | 0.0 | 0.00 | 0.00 | 0.00 | 37 | 1020.2 |
| 20260502123701 | 71 | 37 | 9.0 | 0.0 | 0.00 | 0.00 | 0.00 | 37 | 1020.2 |
| 20260502123602 | 71 | 37 | 9.0 | 0.0 | 0.00 | 0.00 | 0.00 | 37 | 1020.3 |
| 20260502123502 | 71 | 30 | 12.0 | 0.0 | 0.00 | 0.00 | 0.00 | 37 | 1020.3 |
| 20260502123401 | 71 | 30 | 12.0 | 0.0 | 0.00 | 0.00 | 0.00 | 37 | 1020.3 |
| 20260502123302 | 71 | 30 | 12.0 | 0.0 | 0.00 | 0.00 | 0.00 | 37 | 1020.3 |
| 20260502123201 | 71 | 35 | 13.0 | 0.0 | 0.00 | 0.00 | 0.00 | 37 | 1020.3 |
| 20260502123102 | 71 | 35 | 13.0 | 0.0 | 0.00 | 0.00 | 0.00 | 37 | 1020.3 |
| 20260502123001 | 71 | 12 | 10.0 | 0.0 | 0.00 | 0.00 | 0.00 | 38 | 1020.3 |
| 20260502122902 | 71 | 12 | 10.0 | 0.0 | 0.00 | 0.00 | 0.00 | 38 | 1020.3 |
| 20260502122802 | 71 | 12 | 10.0 | 0.0 | 0.00 | 0.00 | 0.00 | 38 | 1020.3 |
| 20260502122701 | 71 | 5 | 13.0 | 0.0 | 0.00 | 0.00 | 0.00 | 38 | 1020.3 |
| 20260502122602 | 71 | 2 | 9.0 | 0.0 | 0.00 | 0.00 | 0.00 | 38 | 1020.3 |
| 20260502122501 | 71 | 2 | 9.0 | 0.0 | 0.00 | 0.00 | 0.00 | 38 | 1020.4 |
| 20260502122402 | 71 | 30 | 6.0 | 0.0 | 0.00 | 0.00 | 0.00 | 37 | 1020.4 |
| 20260502122301 | 71 | 30 | 6.0 | 0.0 | 0.00 | 0.00 | 0.00 | 37 | 1020.4 |
| 20260502122202 | 71 | 30 | 6.0 | 0.0 | 0.00 | 0.00 | 0.00 | 37 | 1020.4 |
| 20260502122102 | 71 | 30 | 6.0 | 0.0 | 0.00 | 0.00 | 0.00 | 37 | 1020.4 |
| 20260502122001 | 71 | 30 | 15.0 | 0.0 | 0.00 | 0.00 | 0.00 | 38 | 1020.4 |
| 20260502121902 | 71 | 30 | 13.0 | 0.0 | 0.00 | 0.00 | 0.00 | 37 | 1020.5 |
| 20260502121702 | 70 | 35 | 8.0 | 0.0 | 0.00 | 0.00 | 0.00 | 37 | 1020.5 |
| 20260502121601 | 70 | 35 | 8.0 | 0.0 | 0.00 | 0.00 | 0.00 | 37 | 1020.5 |
| 20260502121502 | 70 | 35 | 8.0 | 0.0 | 0.00 | 0.00 | 0.00 | 37 | 1020.5 |
| 20260502121402 | 70 | 25 | 13.0 | 0.0 | 0.00 | 0.00 | 0.00 | 38 | 1020.5 |
| 20260502121301 | 70 | 25 | 13.0 | 0.0 | 0.00 | 0.00 | 0.00 | 38 | 1020.5 |
| 20260502121202 | 70 | 17 | 6.0 | 0.0 | 0.00 | 0.00 | 0.00 | 39 | 1020.5 |
| 20260502121101 | 70 | 17 | 6.0 | 0.0 | 0.00 | 0.00 | 0.00 | 39 | 1020.5 |
| 20260502121002 | 70 | 15 | 11.0 | 0.0 | 0.00 | 0.00 | 0.00 | 37 | 1020.6 |
| 20260502120901 | 70 | 15 | 11.0 | 0.0 | 0.00 | 0.00 | 0.00 | 37 | 1020.6 |
| 20260502120802 | 71 | 20 | 12.0 | 0.0 | 0.00 | 0.00 | 0.00 | 38 | 1020.6 |
| 20260502120702 | 71 | 22 | 14.0 | 0.0 | 0.00 | 0.00 | 0.00 | 38 | 1020.6 |
| 20260502120602 | 71 | 22 | 14.0 | 0.0 | 0.00 | 0.00 | 0.00 | 38 | 1020.6 |
| 20260502120502 | 71 | 357 | 7.0 | 0.0 | 0.00 | 0.00 | 0.00 | 38 | 1020.6 |
| 20260502120401 | 71 | 357 | 7.0 | 0.0 | 0.00 | 0.00 | 0.00 | 38 | 1020.6 |
| 20260502120302 | 71 | 357 | 7.0 | 0.0 | 0.00 | 0.00 | 0.00 | 38 | 1020.6 |
| 20260502120201 | 70 | 10 | 6.0 | 0.0 | 0.00 | 0.00 | 0.00 | 38 | 1020.6 |
| 20260502115901 | 70 | 25 | 9.0 | 0.0 | 0.00 | 0.00 | 0.00 | 37 | 1020.7 |
| 20260502115802 | 70 | 25 | 9.0 | 0.0 | 0.00 | 0.00 | 0.00 | 37 | 1020.7 |
| 20260502115701 | 71 | 27 | 14.0 | 0.0 | 0.00 | 0.00 | 0.00 | 38 | 1020.7 |
| 20260502115602 | 71 | 35 | 12.0 | 0.0 | 0.00 | 0.00 | 0.00 | 38 | 1020.7 |
| 20260502115501 | 71 | 35 | 12.0 | 0.0 | 0.00 | 0.00 | 0.00 | 38 | 1020.7 |
| 20260502115402 | 71 | 27 | 15.0 | 0.0 | 0.00 | 0.00 | 0.00 | 38 | 1020.7 |
| 20260502115305 | 71 | 27 | 15.0 | 0.0 | 0.00 | 0.00 | 0.00 | 38 | 1020.7 |
| 20260502115201 | 70 | 32 | 6.0 | 0.0 | 0.00 | 0.00 | 0.00 | 37 | 1020.7 |
| 20260502115102 | 70 | 35 | 10.0 | 0.0 | 0.00 | 0.00 | 0.00 | 37 | 1020.9 |
| 20260502115001 | 70 | 35 | 10.0 | 0.0 | 0.00 | 0.00 | 0.00 | 37 | 1020.7 |
| 20260502114902 | 70 | 7 | 14.0 | 0.0 | 0.00 | 0.00 | 0.00 | 39 | 1020.7 |
| 20260502114801 | 70 | 7 | 14.0 | 0.0 | 0.00 | 0.00 | 0.00 | 39 | 1020.7 |
| 20260502114702 | 70 | 357 | 15.0 | 0.0 | 0.00 | 0.00 | 0.00 | 39 | 1020.9 |
| 20260502114601 | 70 | 357 | 15.0 | 0.0 | 0.00 | 0.00 | 0.00 | 39 | 1020.9 |
| 20260502114502 | 69 | 357 | 5.0 | 0.0 | 0.00 | 0.00 | 0.00 | 39 | 1020.9 |
| 20260502114402 | 69 | 22 | 6.0 | 0.0 | 0.00 | 0.00 | 0.00 | 39 | 1021.0 |
| 20260502114301 | 69 | 22 | 6.0 | 0.0 | 0.00 | 0.00 | 0.00 | 39 | 1021.0 |
| 20260502114202 | 69 | 15 | 14.0 | 0.0 | 0.00 | 0.00 | 0.00 | 39 | 1021.0 |
| 20260502114101 | 69 | 15 | 14.0 | 0.0 | 0.00 | 0.00 | 0.00 | 39 | 1021.0 |
| 20260502113902 | 69 | 15 | 7.0 | 0.0 | 0.00 | 0.00 | 0.00 | 39 | 1021.1 |
| 20260502113802 | 69 | 20 | 6.0 | 0.0 | 0.00 | 0.00 | 0.00 | 39 | 1021.1 |
| 20260502113702 | 69 | 25 | 13.0 | 0.0 | 0.00 | 0.00 | 0.00 | 41 | 1021.1 |
| 20260502113601 | 69 | 25 | 13.0 | 0.0 | 0.00 | 0.00 | 0.00 | 41 | 1021.1 |
| 20260502113502 | 69 | 20 | 14.0 | 0.0 | 0.00 | 0.00 | 0.00 | 40 | 1021.1 |
| 20260502113401 | 69 | 20 | 14.0 | 0.0 | 0.00 | 0.00 | 0.00 | 40 | 1021.2 |
| 20260502113302 | 69 | 20 | 14.0 | 0.0 | 0.00 | 0.00 | 0.00 | 40 | 1021.2 |
| 20260502113201 | 69 | 17 | 12.0 | 0.0 | 0.00 | 0.00 | 0.00 | 40 | 1021.1 |
| 20260502113102 | 69 | 25 | 6.0 | 0.0 | 0.00 | 0.00 | 0.00 | 41 | 1021.2 |
| 20260502113002 | 70 | 0 | 14.0 | 0.0 | 0.00 | 0.00 | 0.00 | 42 | 1021.2 |
| 20260502112901 | 70 | 0 | 14.0 | 0.0 | 0.00 | 0.00 | 0.00 | 42 | 1021.2 |
| 20260502112802 | 70 | 0 | 14.0 | 0.0 | 0.00 | 0.00 | 0.00 | 42 | 1021.2 |
| 20260502112701 | 70 | 0 | 14.0 | 0.0 | 0.00 | 0.00 | 0.00 | 42 | 1021.2 |
| 20260502112602 | 69 | 352 | 6.0 | 0.0 | 0.00 | 0.00 | 0.00 | 40 | 1021.2 |
| 20260502112501 | 69 | 352 | 6.0 | 0.0 | 0.00 | 0.00 | 0.00 | 40 | 1021.3 |
| 20260502112402 | 69 | 335 | 6.0 | 0.0 | 0.00 | 0.00 | 0.00 | 40 | 1021.3 |
| 20260502112305 | 69 | 335 | 6.0 | 0.0 | 0.00 | 0.00 | 0.00 | 40 | 1021.3 |
| 20260502112202 | 69 | 15 | 6.0 | 0.0 | 0.00 | 0.00 | 0.00 | 42 | 1021.4 |
| 20260502112102 | 69 | 15 | 6.0 | 0.0 | 0.00 | 0.00 | 0.00 | 42 | 1021.3 |
| 20260502112001 | 69 | 15 | 6.0 | 0.0 | 0.00 | 0.00 | 0.00 | 42 | 1021.3 |
| 20260502111902 | 68 | 32 | 6.0 | 0.0 | 0.00 | 0.00 | 0.00 | 42 | 1021.4 |
| 20260502111801 | 68 | 32 | 6.0 | 0.0 | 0.00 | 0.00 | 0.00 | 42 | 1021.4 |
| 20260502111702 | 69 | 45 | 12.0 | 0.0 | 0.00 | 0.00 | 0.00 | 41 | 1021.4 |
| 20260502111601 | 69 | 45 | 12.0 | 0.0 | 0.00 | 0.00 | 0.00 | 41 | 1021.4 |
| 20260502111502 | 69 | 27 | 9.0 | 0.0 | 0.00 | 0.00 | 0.00 | 42 | 1021.4 |
| 20260502111402 | 69 | 27 | 9.0 | 0.0 | 0.00 | 0.00 | 0.00 | 42 | 1021.4 |
| 20260502111302 | 69 | 27 | 9.0 | 0.0 | 0.00 | 0.00 | 0.00 | 42 | 1021.4 |
| 20260502111202 | 69 | 357 | 9.0 | 0.0 | 0.00 | 0.00 | 0.00 | 41 | 1021.5 |
| 20260502111101 | 69 | 357 | 9.0 | 0.0 | 0.00 | 0.00 | 0.00 | 41 | 1021.5 |
| 20260502111002 | 69 | 5 | 13.0 | 0.0 | 0.00 | 0.00 | 0.00 | 41 | 1021.5 |
| 20260502110901 | 68 | 7 | 6.0 | 0.0 | 0.00 | 0.00 | 0.00 | 41 | 1021.5 |
| 20260502110802 | 68 | 12 | 6.0 | 0.0 | 0.00 | 0.00 | 0.00 | 42 | 1021.6 |
| 20260502110701 | 69 | 22 | 9.0 | 0.0 | 0.00 | 0.00 | 0.00 | 42 | 1021.5 |
| 20260502110602 | 68 | 15 | 9.0 | 0.0 | 0.00 | 0.00 | 0.00 | 42 | 1021.6 |
| 20260502110501 | 68 | 15 | 9.0 | 0.0 | 0.00 | 0.00 | 0.00 | 42 | 1021.5 |
| 20260502110402 | 68 | 15 | 9.0 | 0.0 | 0.00 | 0.00 | 0.00 | 42 | 1021.5 |
| 20260502110302 | 68 | 27 | 8.0 | 0.0 | 0.00 | 0.00 | 0.00 | 42 | 1021.5 |
| 20260502110202 | 68 | 27 | 8.0 | 0.0 | 0.00 | 0.00 | 0.00 | 42 | 1021.6 |
| 20260502110001 | 68 | 37 | 14.0 | 0.0 | 0.00 | 0.00 | 0.00 | 43 | 1021.5 |
| 20260502105902 | 68 | 37 | 14.0 | 0.0 | 0.00 | 0.00 | 0.00 | 43 | 1021.5 |
| 20260502105801 | 68 | 37 | 14.0 | 0.0 | 0.00 | 0.00 | 0.00 | 43 | 1021.5 |
| 20260502105702 | 68 | 10 | 10.0 | 0.0 | 0.00 | 0.00 | 0.00 | 43 | 1021.5 |
| 20260502105602 | 68 | 10 | 10.0 | 0.0 | 0.00 | 0.00 | 0.00 | 43 | 1021.5 |
| 20260502105502 | 68 | 7 | 14.0 | 0.0 | 0.00 | 0.00 | 0.00 | 42 | 1021.5 |
| 20260502105402 | 68 | 7 | 14.0 | 0.0 | 0.00 | 0.00 | 0.00 | 42 | 1021.6 |
| 20260502105301 | 68 | 7 | 14.0 | 0.0 | 0.00 | 0.00 | 0.00 | 42 | 1021.6 |
| 20260502105202 | 67 | 15 | 9.0 | 0.0 | 0.00 | 0.00 | 0.00 | 43 | 1021.5 |
| 20260502105101 | 67 | 15 | 9.0 | 0.0 | 0.00 | 0.00 | 0.00 | 43 | 1021.5 |
| 20260502105002 | 67 | 12 | 13.0 | 0.0 | 0.00 | 0.00 | 0.00 | 43 | 1021.6 |
| 20260502104902 | 67 | 12 | 13.0 | 0.0 | 0.00 | 0.00 | 0.00 | 43 | 1021.6 |
| 20260502104802 | 67 | 17 | 13.0 | 0.0 | 0.00 | 0.00 | 0.00 | 43 | 1021.6 |
| 20260502104702 | 67 | 35 | 12.0 | 0.0 | 0.00 | 0.00 | 0.00 | 42 | 1021.6 |
| 20260502104601 | 67 | 35 | 12.0 | 0.0 | 0.00 | 0.00 | 0.00 | 42 | 1021.6 |
| 20260502104502 | 67 | 35 | 12.0 | 0.0 | 0.00 | 0.00 | 0.00 | 42 | 1021.7 |
| 20260502104401 | 67 | 35 | 12.0 | 0.0 | 0.00 | 0.00 | 0.00 | 42 | 1021.7 |
| 20260502104302 | 67 | 35 | 12.0 | 0.0 | 0.00 | 0.00 | 0.00 | 42 | 1021.7 |
| 20260502104201 | 68 | 20 | 9.0 | 0.0 | 0.00 | 0.00 | 0.00 | 43 | 1021.7 |
| 20260502104102 | 68 | 20 | 9.0 | 0.0 | 0.00 | 0.00 | 0.00 | 43 | 1021.7 |
| 20260502104002 | 68 | 20 | 9.0 | 0.0 | 0.00 | 0.00 | 0.00 | 43 | 1021.7 |
| 20260502103902 | 67 | 10 | 13.0 | 0.0 | 0.00 | 0.00 | 0.00 | 44 | 1021.7 |
| 20260502103802 | 67 | 10 | 13.0 | 0.0 | 0.00 | 0.00 | 0.00 | 44 | 1021.8 |
| 20260502103701 | 67 | 17 | 13.0 | 0.0 | 0.00 | 0.00 | 0.00 | 44 | 1021.8 |
| 20260502103602 | 67 | 17 | 13.0 | 0.0 | 0.00 | 0.00 | 0.00 | 44 | 1021.7 |
| 20260502103501 | 67 | 17 | 13.0 | 0.0 | 0.00 | 0.00 | 0.00 | 44 | 1021.7 |
| 20260502103402 | 67 | 17 | 13.0 | 0.0 | 0.00 | 0.00 | 0.00 | 44 | 1021.8 |
| 20260502103302 | 67 | 17 | 13.0 | 0.0 | 0.00 | 0.00 | 0.00 | 44 | 1021.8 |
| 20260502103202 | 67 | 30 | 6.0 | 0.0 | 0.00 | 0.00 | 0.00 | 44 | 1021.8 |
| 20260502103102 | 67 | 32 | 16.0 | 0.0 | 0.00 | 0.00 | 0.00 | 44 | 1021.9 |
| 20260502103001 | 67 | 15 | 14.0 | 0.0 | 0.00 | 0.00 | 0.00 | 43 | 1021.8 |
| 20260502102902 | 67 | 15 | 14.0 | 0.0 | 0.00 | 0.00 | 0.00 | 43 | 1021.9 |
| 20260502102801 | 67 | 15 | 14.0 | 0.0 | 0.00 | 0.00 | 0.00 | 43 | 1021.9 |
| 20260502102702 | 66 | 5 | 8.0 | 0.0 | 0.00 | 0.00 | 0.00 | 43 | 1021.9 |
| 20260502102601 | 66 | 5 | 8.0 | 0.0 | 0.00 | 0.00 | 0.00 | 43 | 1021.9 |
| 20260502102502 | 66 | 2 | 6.0 | 0.0 | 0.00 | 0.00 | 0.00 | 43 | 1021.9 |
| 20260502102402 | 67 | 47 | 14.0 | 0.0 | 0.00 | 0.00 | 0.00 | 45 | 1022.0 |
| 20260502102305 | 67 | 47 | 14.0 | 0.0 | 0.00 | 0.00 | 0.00 | 45 | 1022.0 |
| 20260502102202 | 67 | 47 | 14.0 | 0.0 | 0.00 | 0.00 | 0.00 | 45 | 1022.0 |
| 20260502102101 | 67 | 47 | 14.0 | 0.0 | 0.00 | 0.00 | 0.00 | 45 | 1022.0 |
| 20260502102002 | 67 | 32 | 13.0 | 0.0 | 0.00 | 0.00 | 0.00 | 45 | 1022.0 |
| 20260502101902 | 67 | 32 | 13.0 | 0.0 | 0.00 | 0.00 | 0.00 | 45 | 1021.9 |
| 20260502101802 | 67 | 32 | 13.0 | 0.0 | 0.00 | 0.00 | 0.00 | 45 | 1022.0 |
| 20260502101702 | 67 | 15 | 11.0 | 0.0 | 0.00 | 0.00 | 0.00 | 46 | 1022.0 |
| 20260502101602 | 67 | 15 | 11.0 | 0.0 | 0.00 | 0.00 | 0.00 | 46 | 1022.0 |
| 20260502101502 | 66 | 22 | 9.0 | 0.0 | 0.00 | 0.00 | 0.00 | 43 | 1022.1 |
| 20260502101401 | 66 | 22 | 9.0 | 0.0 | 0.00 | 0.00 | 0.00 | 43 | 1022.1 |
| 20260502101302 | 66 | 25 | 13.0 | 0.0 | 0.00 | 0.00 | 0.00 | 44 | 1022.1 |
| 20260502101201 | 66 | 25 | 13.0 | 0.0 | 0.00 | 0.00 | 0.00 | 44 | 1022.1 |
| 20260502101102 | 66 | 35 | 15.0 | 0.0 | 0.00 | 0.00 | 0.00 | 43 | 1022.1 |
| 20260502101001 | 66 | 35 | 15.0 | 0.0 | 0.00 | 0.00 | 0.00 | 43 | 1022.1 |
| 20260502100902 | 66 | 35 | 15.0 | 0.0 | 0.00 | 0.00 | 0.00 | 43 | 1022.1 |
| 20260502100801 | 66 | 35 | 15.0 | 0.0 | 0.00 | 0.00 | 0.00 | 43 | 1022.1 |
| 20260502100702 | 67 | 30 | 17.0 | 0.0 | 0.00 | 0.00 | 0.00 | 44 | 1022.1 |
| 20260502100602 | 66 | 5 | 14.0 | 0.0 | 0.00 | 0.00 | 0.00 | 45 | 1022.1 |
| 20260502100501 | 66 | 5 | 14.0 | 0.0 | 0.00 | 0.00 | 0.00 | 45 | 1022.1 |
| 20260502100402 | 66 | 5 | 14.0 | 0.0 | 0.00 | 0.00 | 0.00 | 45 | 1022.1 |
| 20260502100301 | 66 | 7 | 9.0 | 0.0 | 0.00 | 0.00 | 0.00 | 47 | 1022.1 |
| 20260502100202 | 66 | 7 | 9.0 | 0.0 | 0.00 | 0.00 | 0.00 | 47 | 1022.2 |
| 20260502091502 | 65 | 50 | 10.0 | 0.0 | 0.00 | 0.00 | 0.00 | 47 | 1022.6 |
| 20260502091402 | 65 | 50 | 10.0 | 0.0 | 0.00 | 0.00 | 0.00 | 47 | 1022.5 |
| 20260502091301 | 65 | 47 | 16.0 | 0.0 | 0.00 | 0.00 | 0.00 | 48 | 1022.6 |
| 20260502091202 | 65 | 47 | 16.0 | 0.0 | 0.00 | 0.00 | 0.00 | 48 | 1022.5 |
| 20260502091101 | 65 | 40 | 14.0 | 0.0 | 0.00 | 0.00 | 0.00 | 48 | 1022.6 |
| 20260502091002 | 65 | 40 | 14.0 | 0.0 | 0.00 | 0.00 | 0.00 | 48 | 1022.6 |
| 20260502090901 | 65 | 40 | 14.0 | 0.0 | 0.00 | 0.00 | 0.00 | 48 | 1022.6 |
| 20260502090802 | 65 | 25 | 11.0 | 0.0 | 0.00 | 0.00 | 0.00 | 48 | 1022.6 |
| 20260502090702 | 64 | 10 | 9.0 | 0.0 | 0.00 | 0.00 | 0.00 | 50 | 1022.6 |
| 20260502090601 | 64 | 10 | 9.0 | 0.0 | 0.00 | 0.00 | 0.00 | 50 | 1022.6 |
| 20260502090503 | 64 | 10 | 9.0 | 0.0 | 0.00 | 0.00 | 0.00 | 50 | 1022.6 |
| 20260502090401 | 64 | 10 | 9.0 | 0.0 | 0.00 | 0.00 | 0.00 | 50 | 1022.6 |
| 20260502090302 | 64 | 10 | 9.0 | 0.0 | 0.00 | 0.00 | 0.00 | 50 | 1022.5 |
| 20260502090201 | 64 | 10 | 9.0 | 0.0 | 0.00 | 0.00 | 0.00 | 50 | 1022.5 |
| 20260502071501 | 61 | 10 | 14.0 | 0.0 | 0.00 | 0.00 | 0.00 | 47 | 1023.1 |
| 20260502071402 | 61 | 10 | 14.0 | 0.0 | 0.00 | 0.00 | 0.00 | 47 | 1023.0 |
| 20260502071302 | 61 | 10 | 14.0 | 0.0 | 0.00 | 0.00 | 0.00 | 47 | 1023.0 |
| 20260502071202 | 61 | 20 | 7.0 | 0.0 | 0.00 | 0.00 | 0.00 | 47 | 1023.1 |
| 20260502071102 | 61 | 17 | 12.0 | 0.0 | 0.00 | 0.00 | 0.00 | 49 | 1023.1 |
| 20260502071001 | 61 | 17 | 12.0 | 0.0 | 0.00 | 0.00 | 0.00 | 49 | 1023.0 |
| 20260502070902 | 61 | 12 | 16.0 | 0.0 | 0.00 | 0.00 | 0.00 | 47 | 1023.0 |
| 20260502070801 | 61 | 12 | 16.0 | 0.0 | 0.00 | 0.00 | 0.00 | 47 | 1023.0 |
| 20260502070702 | 61 | 12 | 14.0 | 0.0 | 0.00 | 0.00 | 0.00 | 49 | 1023.1 |
| 20260502070601 | 61 | 12 | 14.0 | 0.0 | 0.00 | 0.00 | 0.00 | 49 | 1023.1 |
| 20260502070502 | 61 | 12 | 12.0 | 0.0 | 0.00 | 0.00 | 0.00 | 48 | 1023.0 |
| 20260502070402 | 61 | 12 | 12.0 | 0.0 | 0.00 | 0.00 | 0.00 | 48 | 1023.1 |
| 20260502070301 | 61 | 12 | 12.0 | 0.0 | 0.00 | 0.00 | 0.00 | 48 | 1023.1 |
| 20260502070202 | 61 | 12 | 12.0 | 0.0 | 0.00 | 0.00 | 0.00 | 48 | 1023.0 |
| 20260502070002 | 61 | 12 | 12.0 | 0.0 | 0.00 | 0.00 | 0.00 | 48 | 1023.0 |
| 20260502065901 | 61 | 12 | 12.0 | 0.0 | 0.00 | 0.00 | 0.00 | 48 | 1023.0 |
| 20260502065802 | 61 | 15 | 10.0 | 0.0 | 0.00 | 0.00 | 0.00 | 49 | 1023.1 |
| 20260502065702 | 61 | 22 | 13.0 | 0.0 | 0.00 | 0.00 | 0.00 | 48 | 1023.1 |
| 20260502065601 | 61 | 22 | 13.0 | 0.0 | 0.00 | 0.00 | 0.00 | 48 | 1023.1 |
| 20260502065502 | 61 | 22 | 13.0 | 0.0 | 0.00 | 0.00 | 0.00 | 48 | 1023.0 |
| 20260502065401 | 61 | 12 | 12.0 | 0.0 | 0.00 | 0.00 | 0.00 | 48 | 1023.1 |
| 20260502065305 | 61 | 12 | 12.0 | 0.0 | 0.00 | 0.00 | 0.00 | 48 | 1023.1 |
| 20260502065201 | 61 | 12 | 12.0 | 0.0 | 0.00 | 0.00 | 0.00 | 48 | 1023.1 |
| 20260502065102 | 60 | 22 | 14.0 | 0.0 | 0.00 | 0.00 | 0.00 | 48 | 1023.0 |
| 20260502065002 | 60 | 22 | 14.0 | 0.0 | 0.00 | 0.00 | 0.00 | 48 | 1023.1 |
| 20260502064901 | 60 | 22 | 14.0 | 0.0 | 0.00 | 0.00 | 0.00 | 48 | 1023.1 |
| 20260502064802 | 60 | 22 | 14.0 | 0.0 | 0.00 | 0.00 | 0.00 | 48 | 1023.1 |
| 20260502064701 | 60 | 22 | 14.0 | 0.0 | 0.00 | 0.00 | 0.00 | 48 | 1023.1 |
| 20260502064602 | 60 | 17 | 17.0 | 0.0 | 0.00 | 0.00 | 0.00 | 48 | 1023.0 |
| 20260502064501 | 60 | 17 | 17.0 | 0.0 | 0.00 | 0.00 | 0.00 | 48 | 1023.0 |
| 20260502064402 | 60 | 20 | 13.0 | 0.0 | 0.00 | 0.00 | 0.00 | 48 | 1023.2 |
| 20260502064301 | 60 | 20 | 13.0 | 0.0 | 0.00 | 0.00 | 0.00 | 48 | 1023.2 |
| 20260502064202 | 60 | 15 | 10.0 | 0.0 | 0.00 | 0.00 | 0.00 | 48 | 1023.1 |
| 20260502064102 | 60 | 15 | 10.0 | 0.0 | 0.00 | 0.00 | 0.00 | 48 | 1023.1 |
| 20260502064001 | 60 | 15 | 10.0 | 0.0 | 0.00 | 0.00 | 0.00 | 48 | 1023.1 |
| 20260502063902 | 60 | 15 | 10.0 | 0.0 | 0.00 | 0.00 | 0.00 | 48 | 1023.1 |
| 20260502063801 | 60 | 15 | 10.0 | 0.0 | 0.00 | 0.00 | 0.00 | 48 | 1023.1 |
| 20260502063702 | 60 | 15 | 10.0 | 0.0 | 0.00 | 0.00 | 0.00 | 48 | 1023.1 |
| 20260502063601 | 60 | 15 | 10.0 | 0.0 | 0.00 | 0.00 | 0.00 | 48 | 1023.1 |
| 20260502063502 | 60 | 10 | 11.0 | 0.0 | 0.00 | 0.00 | 0.00 | 48 | 1023.1 |
| 20260502063402 | 60 | 10 | 11.0 | 0.0 | 0.00 | 0.00 | 0.00 | 48 | 1023.1 |
| 20260502063302 | 60 | 15 | 21.0 | 0.0 | 0.00 | 0.00 | 0.00 | 49 | 1023.1 |
| 20260502063101 | 60 | 20 | 9.0 | 0.0 | 0.00 | 0.00 | 0.00 | 49 | 1023.1 |
| 20260502063002 | 60 | 20 | 9.0 | 0.0 | 0.00 | 0.00 | 0.00 | 49 | 1023.2 |
| 20260502062901 | 60 | 20 | 9.0 | 0.0 | 0.00 | 0.00 | 0.00 | 49 | 1023.1 |
| 20260502062802 | 60 | 17 | 5.0 | 0.0 | 0.00 | 0.00 | 0.00 | 49 | 1023.1 |
| 20260502062702 | 60 | 12 | 12.0 | 0.0 | 0.00 | 0.00 | 0.00 | 49 | 1023.2 |
| 20260502062601 | 60 | 10 | 12.0 | 0.0 | 0.00 | 0.00 | 0.00 | 50 | 1023.2 |
| 20260502062502 | 60 | 5 | 6.0 | 0.0 | 0.00 | 0.00 | 0.00 | 50 | 1023.1 |
| 20260502062401 | 60 | 10 | 9.0 | 0.0 | 0.00 | 0.00 | 0.00 | 49 | 1023.2 |
| 20260502062305 | 60 | 22 | 10.0 | 0.0 | 0.00 | 0.00 | 0.00 | 50 | 1023.2 |
| 20260502062201 | 60 | 22 | 10.0 | 0.0 | 0.00 | 0.00 | 0.00 | 50 | 1023.2 |
| 20260502062102 | 60 | 22 | 10.0 | 0.0 | 0.00 | 0.00 | 0.00 | 50 | 1023.2 |
| 20260502062002 | 60 | 17 | 10.0 | 0.0 | 0.00 | 0.00 | 0.00 | 51 | 1023.1 |
| 20260502061901 | 60 | 17 | 10.0 | 0.0 | 0.00 | 0.00 | 0.00 | 51 | 1023.2 |
| 20260502061802 | 60 | 20 | 6.0 | 0.0 | 0.00 | 0.00 | 0.00 | 50 | 1023.1 |
| 20260502061701 | 60 | 20 | 6.0 | 0.0 | 0.00 | 0.00 | 0.00 | 50 | 1023.1 |
| 20260502061602 | 60 | 12 | 13.0 | 0.0 | 0.00 | 0.00 | 0.00 | 50 | 1023.2 |
| 20260502061501 | 60 | 12 | 13.0 | 0.0 | 0.00 | 0.00 | 0.00 | 50 | 1023.2 |
| 20260502061402 | 60 | 10 | 8.0 | 0.0 | 0.00 | 0.00 | 0.00 | 49 | 1023.2 |
| 20260502061302 | 60 | 10 | 6.0 | 0.0 | 0.00 | 0.00 | 0.00 | 49 | 1023.2 |
| 20260502061201 | 60 | 10 | 6.0 | 0.0 | 0.00 | 0.00 | 0.00 | 49 | 1023.2 |
| 20260502061102 | 60 | 15 | 13.0 | 0.0 | 0.00 | 0.00 | 0.00 | 50 | 1023.2 |
| 20260502061001 | 60 | 15 | 13.0 | 0.0 | 0.00 | 0.00 | 0.00 | 50 | 1023.2 |
| 20260502060902 | 60 | 15 | 13.0 | 0.0 | 0.00 | 0.00 | 0.00 | 50 | 1023.2 |
| 20260502060801 | 60 | 15 | 13.0 | 0.0 | 0.00 | 0.00 | 0.00 | 50 | 1023.2 |
| 20260502060702 | 59 | 20 | 8.0 | 0.0 | 0.00 | 0.00 | 0.00 | 51 | 1023.2 |
| 20260502060602 | 59 | 20 | 8.0 | 0.0 | 0.00 | 0.00 | 0.00 | 51 | 1023.2 |
| 20260502060502 | 59 | 17 | 9.0 | 0.0 | 0.00 | 0.00 | 0.00 | 50 | 1023.2 |
| 20260502060402 | 59 | 17 | 9.0 | 0.0 | 0.00 | 0.00 | 0.00 | 50 | 1023.2 |
| 20260502060301 | 59 | 17 | 9.0 | 0.0 | 0.00 | 0.00 | 0.00 | 50 | 1023.2 |
| 20260502060202 | 59 | 12 | 7.0 | 0.0 | 0.00 | 0.00 | 0.00 | 49 | 1023.2 |
| 20260502060101 | 59 | 12 | 7.0 | 0.0 | 0.00 | 0.00 | 0.00 | 49 | 1023.3 |
| 20260502060002 | 59 | 10 | 13.0 | 0.0 | 0.00 | 0.00 | 0.00 | 50 | 1023.2 |
| 20260502055901 | 59 | 10 | 13.0 | 0.0 | 0.00 | 0.00 | 0.00 | 50 | 1023.2 |
| 20260502055802 | 59 | 15 | 10.0 | 0.0 | 0.00 | 0.00 | 0.00 | 50 | 1023.3 |
| 20260502055702 | 59 | 15 | 10.0 | 0.0 | 0.00 | 0.00 | 0.00 | 50 | 1023.2 |
| 20260502055601 | 59 | 12 | 10.0 | 0.0 | 0.00 | 0.00 | 0.00 | 50 | 1023.2 |
| 20260502055502 | 59 | 12 | 10.0 | 0.0 | 0.00 | 0.00 | 0.00 | 50 | 1023.3 |
| 20260502055401 | 59 | 12 | 10.0 | 0.0 | 0.00 | 0.00 | 0.00 | 50 | 1023.3 |
| 20260502055305 | 59 | 10 | 6.0 | 0.0 | 0.00 | 0.00 | 0.00 | 50 | 1023.3 |
| 20260502055201 | 59 | 10 | 6.0 | 0.0 | 0.00 | 0.00 | 0.00 | 50 | 1023.3 |
| 20260502055102 | 59 | 10 | 13.0 | 0.0 | 0.00 | 0.00 | 0.00 | 50 | 1023.3 |
| 20260502055001 | 59 | 10 | 13.0 | 0.0 | 0.00 | 0.00 | 0.00 | 50 | 1023.3 |
| 20260502054902 | 59 | 12 | 9.0 | 0.0 | 0.00 | 0.00 | 0.00 | 50 | 1023.3 |
| 20260502054802 | 59 | 12 | 9.0 | 0.0 | 0.00 | 0.00 | 0.00 | 50 | 1023.3 |
| 20260502054701 | 59 | 12 | 9.0 | 0.0 | 0.00 | 0.00 | 0.00 | 50 | 1023.3 |
| 20260502054602 | 59 | 12 | 11.0 | 0.0 | 0.00 | 0.00 | 0.00 | 51 | 1023.3 |
| 20260502054501 | 59 | 12 | 11.0 | 0.0 | 0.00 | 0.00 | 0.00 | 51 | 1023.3 |
| 20260502054402 | 59 | 7 | 6.0 | 0.0 | 0.00 | 0.00 | 0.00 | 51 | 1023.3 |
| 20260502054301 | 59 | 7 | 6.0 | 0.0 | 0.00 | 0.00 | 0.00 | 51 | 1023.3 |
| 20260502054202 | 58 | 12 | 13.0 | 0.0 | 0.00 | 0.00 | 0.00 | 51 | 1023.3 |
| 20260502054102 | 58 | 12 | 6.0 | 0.0 | 0.00 | 0.00 | 0.00 | 50 | 1023.3 |
| 20260502054001 | 58 | 12 | 6.0 | 0.0 | 0.00 | 0.00 | 0.00 | 50 | 1023.3 |
| 20260502053902 | 58 | 12 | 6.0 | 0.0 | 0.00 | 0.00 | 0.00 | 50 | 1023.3 |
| 20260502053801 | 58 | 15 | 8.0 | 0.0 | 0.00 | 0.00 | 0.00 | 51 | 1023.3 |
| 20260502053702 | 58 | 15 | 8.0 | 0.0 | 0.00 | 0.00 | 0.00 | 51 | 1023.3 |
| 20260502053602 | 58 | 7 | 7.0 | 0.0 | 0.00 | 0.00 | 0.00 | 51 | 1023.3 |
| 20260502053501 | 58 | 7 | 7.0 | 0.0 | 0.00 | 0.00 | 0.00 | 51 | 1023.3 |
| 20260502053402 | 58 | 7 | 7.0 | 0.0 | 0.00 | 0.00 | 0.00 | 51 | 1023.3 |
| 20260502053301 | 58 | 7 | 6.0 | 0.0 | 0.00 | 0.00 | 0.00 | 51 | 1023.3 |
| 20260502053202 | 58 | 7 | 6.0 | 0.0 | 0.00 | 0.00 | 0.00 | 51 | 1023.3 |
| 20260502053101 | 58 | 10 | 10.0 | 0.0 | 0.00 | 0.00 | 0.00 | 51 | 1023.3 |
| 20260502053002 | 58 | 12 | 11.0 | 0.0 | 0.00 | 0.00 | 0.00 | 51 | 1023.3 |
| 20260502052902 | 58 | 12 | 11.0 | 0.0 | 0.00 | 0.00 | 0.00 | 51 | 1023.3 |
| 20260502052801 | 58 | 12 | 11.0 | 0.0 | 0.00 | 0.00 | 0.00 | 51 | 1023.3 |
| 20260502052702 | 58 | 17 | 10.0 | 0.0 | 0.00 | 0.00 | 0.00 | 52 | 1023.3 |
| 20260502052601 | 58 | 17 | 10.0 | 0.0 | 0.00 | 0.00 | 0.00 | 52 | 1023.3 |
| 20260502052502 | 58 | 17 | 10.0 | 0.0 | 0.00 | 0.00 | 0.00 | 52 | 1023.3 |
| 20260502052401 | 58 | 17 | 10.0 | 0.0 | 0.00 | 0.00 | 0.00 | 52 | 1023.3 |
| 20260502052305 | 58 | 17 | 6.0 | 0.0 | 0.00 | 0.00 | 0.00 | 52 | 1023.3 |
| 20260502052202 | 58 | 17 | 6.0 | 0.0 | 0.00 | 0.00 | 0.00 | 52 | 1023.3 |
| 20260502052101 | 58 | 17 | 6.0 | 0.0 | 0.00 | 0.00 | 0.00 | 52 | 1023.3 |
| 20260502052002 | 57 | 15 | 7.0 | 0.0 | 0.00 | 0.00 | 0.00 | 52 | 1023.3 |
| 20260502051901 | 57 | 15 | 7.0 | 0.0 | 0.00 | 0.00 | 0.00 | 52 | 1023.3 |
| 20260502051802 | 57 | 15 | 7.0 | 0.0 | 0.00 | 0.00 | 0.00 | 52 | 1023.3 |
| 20260502051701 | 57 | 17 | 12.0 | 0.0 | 0.00 | 0.00 | 0.00 | 52 | 1023.3 |
| 20260502051602 | 57 | 17 | 12.0 | 0.0 | 0.00 | 0.00 | 0.00 | 52 | 1023.3 |
| 20260502051501 | 57 | 10 | 7.0 | 0.0 | 0.00 | 0.00 | 0.00 | 52 | 1023.3 |
| 20260502051401 | 57 | 10 | 7.0 | 0.0 | 0.00 | 0.00 | 0.00 | 52 | 1023.3 |
| 20260502051302 | 57 | 12 | 7.0 | 0.0 | 0.00 | 0.00 | 0.00 | 52 | 1023.3 |
| 20260502051201 | 57 | 12 | 7.0 | 0.0 | 0.00 | 0.00 | 0.00 | 52 | 1023.3 |
| 20260502051103 | 57 | 12 | 7.0 | 0.0 | 0.00 | 0.00 | 0.00 | 52 | 1023.3 |
| 20260502051002 | 57 | 7 | 8.0 | 0.0 | 0.00 | 0.00 | 0.00 | 52 | 1023.3 |
| 20260502050902 | 57 | 7 | 8.0 | 0.0 | 0.00 | 0.00 | 0.00 | 52 | 1023.3 |
| 20260502050802 | 57 | 7 | 8.0 | 0.0 | 0.00 | 0.00 | 0.00 | 52 | 1023.3 |
| 20260502050702 | 57 | 7 | 8.0 | 0.0 | 0.00 | 0.00 | 0.00 | 52 | 1023.3 |
| 20260502050602 | 57 | 7 | 8.0 | 0.0 | 0.00 | 0.00 | 0.00 | 52 | 1023.3 |
| 20260502050501 | 57 | 7 | 8.0 | 0.0 | 0.00 | 0.00 | 0.00 | 52 | 1023.3 |
| 20260502050402 | 57 | 2 | 8.0 | 0.0 | 0.00 | 0.00 | 0.00 | 52 | 1023.2 |
| 20260502050301 | 57 | 2 | 8.0 | 0.0 | 0.00 | 0.00 | 0.00 | 52 | 1023.3 |
| 20260502050202 | 57 | 10 | 6.0 | 0.0 | 0.00 | 0.00 | 0.00 | 52 | 1023.3 |
| 20260502050002 | 57 | 5 | 7.0 | 0.0 | 0.00 | 0.00 | 0.00 | 52 | 1023.3 |
| 20260502045902 | 57 | 5 | 7.0 | 0.0 | 0.00 | 0.00 | 0.00 | 52 | 1023.3 |
| 20260502045801 | 57 | 5 | 7.0 | 0.0 | 0.00 | 0.00 | 0.00 | 52 | 1023.3 |
| 20260502045702 | 57 | 2 | 6.0 | 0.0 | 0.00 | 0.00 | 0.00 | 52 | 1023.4 |
| 20260502045601 | 57 | 2 | 6.0 | 0.0 | 0.00 | 0.00 | 0.00 | 52 | 1023.4 |
| 20260502045502 | 56 | 10 | 8.0 | 0.0 | 0.00 | 0.00 | 0.00 | 53 | 1023.3 |
| 20260502045401 | 56 | 10 | 8.0 | 0.0 | 0.00 | 0.00 | 0.00 | 53 | 1023.3 |
| 20260502045305 | 56 | 10 | 7.0 | 0.0 | 0.00 | 0.00 | 0.00 | 53 | 1023.3 |
| 20260502045201 | 56 | 10 | 7.0 | 0.0 | 0.00 | 0.00 | 0.00 | 53 | 1023.3 |
| 20260502045102 | 56 | 10 | 7.0 | 0.0 | 0.00 | 0.00 | 0.00 | 53 | 1023.3 |
| 20260502045002 | 56 | 10 | 7.0 | 0.0 | 0.00 | 0.00 | 0.00 | 53 | 1023.3 |
| 20260502044901 | 56 | 10 | 7.0 | 0.0 | 0.00 | 0.00 | 0.00 | 53 | 1023.3 |
| 20260502044802 | 56 | 2 | 5.0 | 0.0 | 0.00 | 0.00 | 0.00 | 52 | 1023.4 |
| 20260502044701 | 56 | 2 | 5.0 | 0.0 | 0.00 | 0.00 | 0.00 | 52 | 1023.4 |
| 20260502044602 | 56 | 2 | 5.0 | 0.0 | 0.00 | 0.00 | 0.00 | 52 | 1023.3 |
| 20260502044501 | 56 | 2 | 5.0 | 0.0 | 0.00 | 0.00 | 0.00 | 52 | 1023.3 |
| 20260502044402 | 56 | 357 | 6.0 | 0.0 | 0.00 | 0.00 | 0.00 | 52 | 1023.3 |
| 20260502044301 | 56 | 357 | 6.0 | 0.0 | 0.00 | 0.00 | 0.00 | 52 | 1023.3 |
| 20260502044202 | 56 | 357 | 6.0 | 0.0 | 0.00 | 0.00 | 0.00 | 52 | 1023.3 |
| 20260502044102 | 56 | 357 | 5.0 | 0.0 | 0.00 | 0.00 | 0.00 | 53 | 1023.3 |
| 20260502044001 | 56 | 357 | 5.0 | 0.0 | 0.00 | 0.00 | 0.00 | 53 | 1023.3 |
| 20260502043902 | 56 | 357 | 4.0 | 0.0 | 0.00 | 0.00 | 0.00 | 53 | 1023.3 |
| 20260502043801 | 56 | 357 | 4.0 | 0.0 | 0.00 | 0.00 | 0.00 | 53 | 1023.3 |
| 20260502043702 | 56 | 357 | 4.0 | 0.0 | 0.00 | 0.00 | 0.00 | 53 | 1023.3 |
| 20260502043601 | 56 | 2 | 5.0 | 0.0 | 0.00 | 0.00 | 0.00 | 52 | 1023.3 |
| 20260502043502 | 56 | 2 | 5.0 | 0.0 | 0.00 | 0.00 | 0.00 | 52 | 1023.3 |
| 20260502043402 | 56 | 347 | 6.0 | 0.0 | 0.00 | 0.00 | 0.00 | 53 | 1023.3 |
| 20260502043302 | 56 | 347 | 6.0 | 0.0 | 0.00 | 0.00 | 0.00 | 53 | 1023.3 |
| 20260502043202 | 56 | 347 | 6.0 | 0.0 | 0.00 | 0.00 | 0.00 | 53 | 1023.3 |
| 20260502043101 | 56 | 355 | 5.0 | 0.0 | 0.00 | 0.00 | 0.00 | 53 | 1023.3 |
| 20260502043002 | 56 | 355 | 5.0 | 0.0 | 0.00 | 0.00 | 0.00 | 53 | 1023.4 |
| 20260502042901 | 56 | 357 | 4.0 | 0.0 | 0.00 | 0.00 | 0.00 | 53 | 1023.4 |
| 20260502042802 | 56 | 357 | 4.0 | 0.0 | 0.00 | 0.00 | 0.00 | 53 | 1023.3 |
| 20260502042702 | 56 | 357 | 4.0 | 0.0 | 0.00 | 0.00 | 0.00 | 53 | 1023.3 |
| 20260502042602 | 56 | 2 | 4.0 | 0.0 | 0.00 | 0.00 | 0.00 | 53 | 1023.3 |
| 20260502042502 | 56 | 2 | 4.0 | 0.0 | 0.00 | 0.00 | 0.00 | 53 | 1023.4 |
| 20260502042401 | 56 | 2 | 4.0 | 0.0 | 0.00 | 0.00 | 0.00 | 53 | 1023.4 |
| 20260502042305 | 56 | 2 | 4.0 | 0.0 | 0.00 | 0.00 | 0.00 | 53 | 1023.4 |
| 20260502042201 | 56 | 2 | 4.0 | 0.0 | 0.00 | 0.00 | 0.00 | 53 | 1023.4 |
| 20260502042102 | 56 | 2 | 4.0 | 0.0 | 0.00 | 0.00 | 0.00 | 53 | 1023.4 |
| 20260502042002 | 56 | 2 | 4.0 | 0.0 | 0.00 | 0.00 | 0.00 | 53 | 1023.4 |
| 20260502041902 | 55 | 7 | 6.0 | 0.0 | 0.00 | 0.00 | 0.00 | 53 | 1023.4 |
| 20260502041801 | 55 | 7 | 6.0 | 0.0 | 0.00 | 0.00 | 0.00 | 53 | 1023.4 |
| 20260502041702 | 55 | 7 | 6.0 | 0.0 | 0.00 | 0.00 | 0.00 | 53 | 1023.3 |
| 20260502041602 | 55 | 7 | 6.0 | 0.0 | 0.00 | 0.00 | 0.00 | 53 | 1023.3 |
| 20260502041501 | 55 | 7 | 6.0 | 0.0 | 0.00 | 0.00 | 0.00 | 53 | 1023.4 |
| 20260502041402 | 55 | 7 | 6.0 | 0.0 | 0.00 | 0.00 | 0.00 | 53 | 1023.3 |
| 20260502041301 | 55 | 7 | 6.0 | 0.0 | 0.00 | 0.00 | 0.00 | 53 | 1023.4 |
| 20260502041202 | 55 | 7 | 6.0 | 0.0 | 0.00 | 0.00 | 0.00 | 53 | 1023.3 |
| 20260502041101 | 55 | 350 | 6.0 | 0.0 | 0.00 | 0.00 | 0.00 | 53 | 1023.3 |
| 20260502041002 | 55 | 350 | 6.0 | 0.0 | 0.00 | 0.00 | 0.00 | 53 | 1023.4 |
| 20260502040901 | 55 | 350 | 6.0 | 0.0 | 0.00 | 0.00 | 0.00 | 53 | 1023.3 |
| 20260502040802 | 55 | 355 | 5.0 | 0.0 | 0.00 | 0.00 | 0.00 | 53 | 1023.4 |
| 20260502040601 | 55 | 2 | 5.0 | 0.0 | 0.00 | 0.00 | 0.00 | 53 | 1023.4 |
| 20260502040502 | 55 | 2 | 5.0 | 0.0 | 0.00 | 0.00 | 0.00 | 53 | 1023.4 |
| 20260502040401 | 56 | 357 | 6.0 | 0.0 | 0.00 | 0.00 | 0.00 | 53 | 1023.4 |
| 20260502040302 | 56 | 357 | 6.0 | 0.0 | 0.00 | 0.00 | 0.00 | 53 | 1023.4 |
| 20260502040202 | 56 | 357 | 6.0 | 0.0 | 0.00 | 0.00 | 0.00 | 53 | 1023.4 |
| 20260502040002 | 56 | 350 | 6.0 | 0.0 | 0.00 | 0.00 | 0.00 | 53 | 1023.5 |
| 20260502035901 | 56 | 350 | 6.0 | 0.0 | 0.00 | 0.00 | 0.00 | 53 | 1023.4 |
| 20260502035701 | 55 | 350 | 6.0 | 0.0 | 0.00 | 0.00 | 0.00 | 53 | 1023.5 |
| 20260502035602 | 55 | 352 | 4.0 | 0.0 | 0.00 | 0.00 | 0.00 | 53 | 1023.5 |
| 20260502035502 | 55 | 340 | 4.0 | 0.0 | 0.00 | 0.00 | 0.00 | 53 | 1023.5 |
| 20260502035401 | 55 | 340 | 4.0 | 0.0 | 0.00 | 0.00 | 0.00 | 53 | 1023.5 |
| 20260502035302 | 55 | 340 | 4.0 | 0.0 | 0.00 | 0.00 | 0.00 | 53 | 1023.5 |
| 20260502035201 | 55 | 340 | 4.0 | 0.0 | 0.00 | 0.00 | 0.00 | 53 | 1023.4 |
| 20260502035102 | 55 | 355 | 4.0 | 0.0 | 0.00 | 0.00 | 0.00 | 53 | 1023.4 |
| 20260502035002 | 55 | 355 | 4.0 | 0.0 | 0.00 | 0.00 | 0.00 | 53 | 1023.4 |
| 20260502034902 | 55 | 342 | 4.0 | 0.0 | 0.00 | 0.00 | 0.00 | 53 | 1023.5 |
| 20260502034802 | 55 | 342 | 4.0 | 0.0 | 0.00 | 0.00 | 0.00 | 53 | 1023.5 |
| 20260502034701 | 55 | 342 | 4.0 | 0.0 | 0.00 | 0.00 | 0.00 | 53 | 1023.5 |
| 20260502034602 | 55 | 0 | 3.0 | 0.0 | 0.00 | 0.00 | 0.00 | 53 | 1023.5 |
| 20260502034501 | 55 | 0 | 3.0 | 0.0 | 0.00 | 0.00 | 0.00 | 53 | 1023.5 |
| 20260502034402 | 55 | 0 | 3.0 | 0.0 | 0.00 | 0.00 | 0.00 | 53 | 1023.5 |
| 20260502034301 | 55 | 2 | 5.0 | 0.0 | 0.00 | 0.00 | 0.00 | 53 | 1023.5 |
| 20260502034202 | 55 | 2 | 5.0 | 0.0 | 0.00 | 0.00 | 0.00 | 53 | 1023.5 |
| 20260502034102 | 55 | 357 | 6.0 | 0.0 | 0.00 | 0.00 | 0.00 | 53 | 1023.5 |
| 20260502034001 | 55 | 357 | 6.0 | 0.0 | 0.00 | 0.00 | 0.00 | 53 | 1023.5 |
| 20260502033902 | 55 | 357 | 6.0 | 0.0 | 0.00 | 0.00 | 0.00 | 53 | 1023.5 |
| 20260502033801 | 55 | 0 | 3.0 | 0.0 | 0.00 | 0.00 | 0.00 | 53 | 1023.5 |
| 20260502033702 | 55 | 0 | 3.0 | 0.0 | 0.00 | 0.00 | 0.00 | 53 | 1023.5 |
| 20260502033601 | 55 | 0 | 3.0 | 0.0 | 0.00 | 0.00 | 0.00 | 53 | 1023.5 |
| 20260502033502 | 56 | 7 | 4.0 | 0.0 | 0.00 | 0.00 | 0.00 | 53 | 1023.5 |
| 20260502033402 | 56 | 7 | 4.0 | 0.0 | 0.00 | 0.00 | 0.00 | 53 | 1023.5 |
| 20260502033302 | 56 | 0 | 7.0 | 0.0 | 0.00 | 0.00 | 0.00 | 53 | 1023.5 |
| 20260502033202 | 56 | 357 | 4.0 | 0.0 | 0.00 | 0.00 | 0.00 | 53 | 1023.5 |
| 20260502033101 | 56 | 357 | 4.0 | 0.0 | 0.00 | 0.00 | 0.00 | 53 | 1023.5 |
| 20260502033002 | 56 | 357 | 4.0 | 0.0 | 0.00 | 0.00 | 0.00 | 53 | 1023.5 |
| 20260502032901 | 56 | 357 | 4.0 | 0.0 | 0.00 | 0.00 | 0.00 | 53 | 1023.5 |
| 20260502032802 | 56 | 357 | 4.0 | 0.0 | 0.00 | 0.00 | 0.00 | 53 | 1023.6 |
| 20260502032702 | 56 | 357 | 4.0 | 0.0 | 0.00 | 0.00 | 0.00 | 53 | 1023.6 |
| 20260502032602 | 56 | 357 | 6.0 | 0.0 | 0.00 | 0.00 | 0.00 | 53 | 1023.6 |
| 20260502032502 | 56 | 357 | 6.0 | 0.0 | 0.00 | 0.00 | 0.00 | 53 | 1023.6 |
| 20260502032401 | 56 | 357 | 6.0 | 0.0 | 0.00 | 0.00 | 0.00 | 53 | 1023.6 |
| 20260502032305 | 56 | 357 | 5.0 | 0.0 | 0.00 | 0.00 | 0.00 | 53 | 1023.6 |
| 20260502032201 | 56 | 357 | 5.0 | 0.0 | 0.00 | 0.00 | 0.00 | 53 | 1023.6 |
| 20260502032102 | 56 | 357 | 5.0 | 0.0 | 0.00 | 0.00 | 0.00 | 53 | 1023.6 |
| 20260502032001 | 56 | 355 | 8.0 | 0.0 | 0.00 | 0.00 | 0.00 | 53 | 1023.6 |
| 20260502031901 | 56 | 355 | 8.0 | 0.0 | 0.00 | 0.00 | 0.00 | 53 | 1023.6 |
| 20260502031802 | 56 | 347 | 4.0 | 0.0 | 0.00 | 0.00 | 0.00 | 53 | 1023.6 |
| 20260502031701 | 56 | 347 | 4.0 | 0.0 | 0.00 | 0.00 | 0.00 | 53 | 1023.6 |
| 20260502031602 | 56 | 347 | 4.0 | 0.0 | 0.00 | 0.00 | 0.00 | 53 | 1023.7 |
| 20260502031501 | 55 | 347 | 5.0 | 0.0 | 0.00 | 0.00 | 0.00 | 53 | 1023.6 |
| 20260502031402 | 55 | 347 | 5.0 | 0.0 | 0.00 | 0.00 | 0.00 | 53 | 1023.7 |
| 20260502031301 | 55 | 347 | 5.0 | 0.0 | 0.00 | 0.00 | 0.00 | 53 | 1023.6 |
| 20260502031202 | 56 | 0 | 4.0 | 0.0 | 0.00 | 0.00 | 0.00 | 53 | 1023.7 |
| 20260502031102 | 56 | 0 | 4.0 | 0.0 | 0.00 | 0.00 | 0.00 | 53 | 1023.7 |
| 20260502031001 | 56 | 0 | 4.0 | 0.0 | 0.00 | 0.00 | 0.00 | 53 | 1023.7 |
| 20260502030902 | 56 | 0 | 4.0 | 0.0 | 0.00 | 0.00 | 0.00 | 53 | 1023.7 |
| 20260502030801 | 56 | 355 | 3.0 | 0.0 | 0.00 | 0.00 | 0.00 | 53 | 1023.7 |
| 20260502030702 | 56 | 355 | 3.0 | 0.0 | 0.00 | 0.00 | 0.00 | 53 | 1023.7 |
| 20260502030601 | 56 | 355 | 3.0 | 0.0 | 0.00 | 0.00 | 0.00 | 53 | 1023.7 |
| 20260502030502 | 56 | 355 | 3.0 | 0.0 | 0.00 | 0.00 | 0.00 | 53 | 1023.7 |
| 20260502030402 | 56 | 355 | 3.0 | 0.0 | 0.00 | 0.00 | 0.00 | 53 | 1023.7 |
| 20260502030301 | 56 | 355 | 3.0 | 0.0 | 0.00 | 0.00 | 0.00 | 53 | 1023.7 |
| 20260502030202 | 56 | 0 | 4.0 | 0.0 | 0.00 | 0.00 | 0.00 | 53 | 1023.7 |
| 20260502030002 | 56 | 355 | 5.0 | 0.0 | 0.00 | 0.00 | 0.00 | 53 | 1023.7 |
| 20260502025901 | 56 | 355 | 5.0 | 0.0 | 0.00 | 0.00 | 0.00 | 53 | 1023.7 |
| 20260502025802 | 56 | 347 | 6.0 | 0.0 | 0.00 | 0.00 | 0.00 | 53 | 1023.7 |
| 20260502025702 | 56 | 347 | 6.0 | 0.0 | 0.00 | 0.00 | 0.00 | 53 | 1023.8 |
| 20260502025602 | 56 | 347 | 7.0 | 0.0 | 0.00 | 0.00 | 0.00 | 54 | 1023.8 |
| 20260502025502 | 56 | 347 | 7.0 | 0.0 | 0.00 | 0.00 | 0.00 | 54 | 1023.8 |
| 20260502025401 | 56 | 347 | 7.0 | 0.0 | 0.00 | 0.00 | 0.00 | 54 | 1023.8 |
| 20260502025305 | 55 | 355 | 4.0 | 0.0 | 0.00 | 0.00 | 0.00 | 54 | 1023.8 |
| 20260502025201 | 55 | 355 | 4.0 | 0.0 | 0.00 | 0.00 | 0.00 | 54 | 1023.8 |
| 20260502025102 | 55 | 355 | 4.0 | 0.0 | 0.00 | 0.00 | 0.00 | 54 | 1023.8 |
| 20260502025001 | 55 | 355 | 4.0 | 0.0 | 0.00 | 0.00 | 0.00 | 54 | 1023.8 |
| 20260502024902 | 55 | 355 | 4.0 | 0.0 | 0.00 | 0.00 | 0.00 | 54 | 1023.8 |
| 20260502024802 | 55 | 355 | 3.0 | 0.0 | 0.00 | 0.00 | 0.00 | 55 | 1023.8 |
| 20260502024701 | 55 | 355 | 3.0 | 0.0 | 0.00 | 0.00 | 0.00 | 55 | 1023.8 |
| 20260502024602 | 55 | 355 | 3.0 | 0.0 | 0.00 | 0.00 | 0.00 | 55 | 1023.8 |
| 20260502024501 | 56 | 2 | 3.0 | 0.0 | 0.00 | 0.00 | 0.00 | 54 | 1023.8 |
| 20260502024402 | 56 | 2 | 3.0 | 0.0 | 0.00 | 0.00 | 0.00 | 54 | 1023.8 |
| 20260502024301 | 56 | 355 | 5.0 | 0.0 | 0.00 | 0.00 | 0.00 | 54 | 1023.8 |
| 20260502024202 | 56 | 355 | 5.0 | 0.0 | 0.00 | 0.00 | 0.00 | 54 | 1023.8 |
| 20260502024102 | 56 | 355 | 5.0 | 0.0 | 0.00 | 0.00 | 0.00 | 54 | 1023.8 |
| 20260502024001 | 56 | 340 | 3.0 | 0.0 | 0.00 | 0.00 | 0.00 | 54 | 1023.8 |
| 20260502023902 | 56 | 340 | 3.0 | 0.0 | 0.00 | 0.00 | 0.00 | 54 | 1023.8 |
| 20260502023802 | 56 | 337 | 4.0 | 0.0 | 0.00 | 0.00 | 0.00 | 54 | 1023.8 |
| 20260502023702 | 56 | 337 | 4.0 | 0.0 | 0.00 | 0.00 | 0.00 | 54 | 1023.9 |
| 20260502023601 | 56 | 337 | 4.0 | 0.0 | 0.00 | 0.00 | 0.00 | 54 | 1023.9 |
| 20260502023502 | 56 | 337 | 4.0 | 0.0 | 0.00 | 0.00 | 0.00 | 54 | 1023.9 |
| 20260502023402 | 56 | 325 | 5.0 | 0.0 | 0.00 | 0.00 | 0.00 | 55 | 1023.9 |
| 20260502023301 | 56 | 325 | 5.0 | 0.0 | 0.00 | 0.00 | 0.00 | 55 | 1023.9 |
| 20260502023202 | 56 | 325 | 5.0 | 0.0 | 0.00 | 0.00 | 0.00 | 55 | 1023.9 |
| 20260502023101 | 56 | 325 | 5.0 | 0.0 | 0.00 | 0.00 | 0.00 | 55 | 1023.9 |
| 20260502023002 | 56 | 347 | 3.0 | 0.0 | 0.00 | 0.00 | 0.00 | 54 | 1023.9 |
| 20260502022902 | 56 | 347 | 3.0 | 0.0 | 0.00 | 0.00 | 0.00 | 54 | 1023.9 |
| 20260502022802 | 56 | 347 | 3.0 | 0.0 | 0.00 | 0.00 | 0.00 | 54 | 1024.0 |
| 20260502022702 | 56 | 347 | 6.0 | 0.0 | 0.00 | 0.00 | 0.00 | 55 | 1024.0 |
| 20260502022601 | 56 | 347 | 6.0 | 0.0 | 0.00 | 0.00 | 0.00 | 55 | 1024.0 |
| 20260502022502 | 56 | 352 | 4.0 | 0.0 | 0.00 | 0.00 | 0.00 | 55 | 1024.0 |
| 20260502022401 | 56 | 352 | 4.0 | 0.0 | 0.00 | 0.00 | 0.00 | 55 | 1024.0 |
| 20260502022306 | 56 | 352 | 4.0 | 0.0 | 0.00 | 0.00 | 0.00 | 55 | 1024.0 |
| 20260502022201 | 56 | 352 | 4.0 | 0.0 | 0.00 | 0.00 | 0.00 | 55 | 1024.0 |
| 20260502022102 | 56 | 352 | 4.0 | 0.0 | 0.00 | 0.00 | 0.00 | 55 | 1024.0 |
| 20260502022002 | 56 | 357 | 3.0 | 0.0 | 0.00 | 0.00 | 0.00 | 55 | 1024.0 |
| 20260502021901 | 56 | 357 | 3.0 | 0.0 | 0.00 | 0.00 | 0.00 | 55 | 1024.0 |
| 20260502021802 | 56 | 357 | 3.0 | 0.0 | 0.00 | 0.00 | 0.00 | 55 | 1024.1 |
| 20260502021701 | 56 | 357 | 3.0 | 0.0 | 0.00 | 0.00 | 0.00 | 55 | 1024.1 |
| 20260502021602 | 56 | 357 | 3.0 | 0.0 | 0.00 | 0.00 | 0.00 | 55 | 1024.1 |
| 20260502021501 | 56 | 350 | 4.0 | 0.0 | 0.00 | 0.00 | 0.00 | 55 | 1024.0 |
| 20260502021402 | 56 | 350 | 4.0 | 0.0 | 0.00 | 0.00 | 0.00 | 55 | 1024.0 |
| 20260502021302 | 56 | 347 | 4.0 | 0.0 | 0.00 | 0.00 | 0.00 | 55 | 1024.1 |
| 20260502021201 | 56 | 347 | 4.0 | 0.0 | 0.00 | 0.00 | 0.00 | 55 | 1024.1 |
| 20260502021102 | 56 | 347 | 4.0 | 0.0 | 0.00 | 0.00 | 0.00 | 55 | 1024.1 |
| 20260502021001 | 56 | 340 | 5.0 | 0.0 | 0.00 | 0.00 | 0.00 | 56 | 1024.1 |
| 20260502020902 | 56 | 340 | 5.0 | 0.0 | 0.00 | 0.00 | 0.00 | 56 | 1024.1 |
| 20260502020801 | 56 | 340 | 5.0 | 0.0 | 0.00 | 0.00 | 0.00 | 56 | 1024.1 |
| 20260502020702 | 55 | 345 | 4.0 | 0.0 | 0.00 | 0.00 | 0.00 | 56 | 1024.1 |
| 20260502020602 | 55 | 345 | 4.0 | 0.0 | 0.00 | 0.00 | 0.00 | 56 | 1024.1 |
| 20260502020501 | 55 | 345 | 4.0 | 0.0 | 0.00 | 0.00 | 0.00 | 56 | 1024.1 |
| 20260502020402 | 55 | 345 | 4.0 | 0.0 | 0.00 | 0.00 | 0.00 | 56 | 1024.1 |
| 20260502020301 | 55 | 345 | 4.0 | 0.0 | 0.00 | 0.00 | 0.00 | 56 | 1024.1 |
| 20260502020202 | 56 | 345 | 4.0 | 0.0 | 0.00 | 0.00 | 0.00 | 56 | 1024.1 |
| 20260502020002 | 56 | 355 | 4.0 | 0.0 | 0.00 | 0.00 | 0.00 | 56 | 1024.1 |
| 20260502015901 | 56 | 355 | 4.0 | 0.0 | 0.00 | 0.00 | 0.00 | 56 | 1024.1 |
| 20260502015802 | 56 | 355 | 4.0 | 0.0 | 0.00 | 0.00 | 0.00 | 56 | 1024.1 |
| 20260502015702 | 56 | 347 | 5.0 | 0.0 | 0.00 | 0.00 | 0.00 | 56 | 1024.1 |
| 20260502015601 | 56 | 347 | 5.0 | 0.0 | 0.00 | 0.00 | 0.00 | 56 | 1024.1 |
| 20260502015502 | 56 | 347 | 5.0 | 0.0 | 0.00 | 0.00 | 0.00 | 56 | 1024.1 |
| 20260502015401 | 56 | 357 | 6.0 | 0.0 | 0.00 | 0.00 | 0.00 | 56 | 1024.2 |
| 20260502015305 | 56 | 357 | 6.0 | 0.0 | 0.00 | 0.00 | 0.00 | 56 | 1024.2 |
| 20260502015201 | 56 | 357 | 6.0 | 0.0 | 0.00 | 0.00 | 0.00 | 56 | 1024.2 |
| 20260502015102 | 56 | 357 | 6.0 | 0.0 | 0.00 | 0.00 | 0.00 | 56 | 1024.2 |
| 20260502015002 | 56 | 347 | 4.0 | 0.0 | 0.00 | 0.00 | 0.00 | 56 | 1024.2 |
| 20260502014901 | 56 | 347 | 4.0 | 0.0 | 0.00 | 0.00 | 0.00 | 56 | 1024.2 |
| 20260502014802 | 56 | 347 | 4.0 | 0.0 | 0.00 | 0.00 | 0.00 | 56 | 1024.2 |
| 20260502014701 | 56 | 355 | 4.0 | 0.0 | 0.00 | 0.00 | 0.00 | 56 | 1024.2 |
| 20260502014602 | 56 | 355 | 4.0 | 0.0 | 0.00 | 0.00 | 0.00 | 56 | 1024.2 |
| 20260502014501 | 56 | 355 | 4.0 | 0.0 | 0.00 | 0.00 | 0.00 | 56 | 1024.2 |
| 20260502014402 | 56 | 337 | 3.0 | 0.0 | 0.00 | 0.00 | 0.00 | 56 | 1024.2 |
| 20260502014302 | 56 | 337 | 3.0 | 0.0 | 0.00 | 0.00 | 0.00 | 56 | 1024.2 |
| 20260502014201 | 56 | 337 | 3.0 | 0.0 | 0.00 | 0.00 | 0.00 | 56 | 1024.2 |
| 20260502014102 | 56 | 337 | 3.0 | 0.0 | 0.00 | 0.00 | 0.00 | 56 | 1024.2 |
| 20260502014001 | 56 | 337 | 3.0 | 0.0 | 0.00 | 0.00 | 0.00 | 56 | 1024.3 |
| 20260502013902 | 56 | 352 | 6.0 | 0.0 | 0.00 | 0.00 | 0.00 | 56 | 1024.3 |
| 20260502013801 | 56 | 352 | 6.0 | 0.0 | 0.00 | 0.00 | 0.00 | 56 | 1024.3 |
| 20260502013702 | 56 | 352 | 6.0 | 0.0 | 0.00 | 0.00 | 0.00 | 56 | 1024.3 |
| 20260502013602 | 56 | 347 | 5.0 | 0.0 | 0.00 | 0.00 | 0.00 | 56 | 1024.3 |
| 20260502013501 | 56 | 347 | 5.0 | 0.0 | 0.00 | 0.00 | 0.00 | 56 | 1024.3 |
| 20260502013402 | 56 | 347 | 4.0 | 0.0 | 0.00 | 0.00 | 0.00 | 56 | 1024.3 |
| 20260502013301 | 56 | 347 | 4.0 | 0.0 | 0.00 | 0.00 | 0.00 | 56 | 1024.3 |
| 20260502013202 | 56 | 347 | 4.0 | 0.0 | 0.00 | 0.00 | 0.00 | 56 | 1024.3 |
| 20260502013101 | 56 | 330 | 3.0 | 0.0 | 0.00 | 0.00 | 0.00 | 56 | 1024.3 |
| 20260502013002 | 56 | 330 | 3.0 | 0.0 | 0.00 | 0.00 | 0.00 | 56 | 1024.3 |
| 20260502012902 | 56 | 350 | 3.0 | 0.0 | 0.00 | 0.00 | 0.00 | 56 | 1024.4 |
| 20260502012801 | 56 | 350 | 3.0 | 0.0 | 0.00 | 0.00 | 0.00 | 56 | 1024.4 |
| 20260502012702 | 56 | 350 | 3.0 | 0.0 | 0.00 | 0.00 | 0.00 | 56 | 1024.4 |
| 20260502012601 | 56 | 335 | 0.0 | 0.0 | 0.00 | 0.00 | 0.00 | 56 | 1024.4 |
| 20260502012502 | 56 | 335 | 0.0 | 0.0 | 0.00 | 0.00 | 0.00 | 56 | 1024.4 |
| 20260502012401 | 56 | 325 | 0.0 | 0.0 | 0.00 | 0.00 | 0.00 | 56 | 1024.4 |
| 20260502012306 | 56 | 325 | 0.0 | 0.0 | 0.00 | 0.00 | 0.00 | 56 | 1024.4 |
| 20260502012202 | 56 | 325 | 0.0 | 0.0 | 0.00 | 0.00 | 0.00 | 56 | 1024.4 |
| 20260502012101 | 56 | 350 | 0.0 | 0.0 | 0.00 | 0.00 | 0.00 | 56 | 1024.4 |
| 20260502012002 | 56 | 350 | 0.0 | 0.0 | 0.00 | 0.00 | 0.00 | 56 | 1024.4 |
| 20260502011901 | 56 | 332 | 6.0 | 0.0 | 0.00 | 0.00 | 0.00 | 57 | 1024.4 |
| 20260502011802 | 56 | 332 | 6.0 | 0.0 | 0.00 | 0.00 | 0.00 | 57 | 1024.4 |
| 20260502011701 | 56 | 332 | 6.0 | 0.0 | 0.00 | 0.00 | 0.00 | 57 | 1024.4 |
| 20260502011602 | 56 | 320 | 3.0 | 0.0 | 0.00 | 0.00 | 0.00 | 56 | 1024.4 |
| 20260502011502 | 56 | 320 | 3.0 | 0.0 | 0.00 | 0.00 | 0.00 | 56 | 1024.4 |
| 20260502011401 | 56 | 330 | 6.0 | 0.0 | 0.00 | 0.00 | 0.00 | 57 | 1024.4 |
| 20260502011302 | 56 | 330 | 6.0 | 0.0 | 0.00 | 0.00 | 0.00 | 57 | 1024.4 |
| 20260502011201 | 56 | 330 | 6.0 | 0.0 | 0.00 | 0.00 | 0.00 | 57 | 1024.5 |
| 20260502011102 | 55 | 315 | 4.0 | 0.0 | 0.00 | 0.00 | 0.00 | 57 | 1024.4 |
| 20260502011001 | 55 | 315 | 4.0 | 0.0 | 0.00 | 0.00 | 0.00 | 57 | 1024.5 |
| 20260502010902 | 55 | 315 | 4.0 | 0.0 | 0.00 | 0.00 | 0.00 | 57 | 1024.5 |
| 20260502010801 | 55 | 305 | 5.0 | 0.0 | 0.00 | 0.00 | 0.00 | 57 | 1024.5 |
| 20260502010702 | 55 | 305 | 5.0 | 0.0 | 0.00 | 0.00 | 0.00 | 57 | 1024.5 |
| 20260502010602 | 55 | 317 | 4.0 | 0.0 | 0.00 | 0.00 | 0.00 | 57 | 1024.5 |
| 20260502010502 | 55 | 317 | 4.0 | 0.0 | 0.00 | 0.00 | 0.00 | 57 | 1024.5 |
| 20260502010401 | 56 | 327 | 5.0 | 0.0 | 0.00 | 0.00 | 0.00 | 57 | 1024.5 |
| 20260502010302 | 56 | 327 | 5.0 | 0.0 | 0.00 | 0.00 | 0.00 | 57 | 1024.5 |
| 20260502010201 | 56 | 327 | 5.0 | 0.0 | 0.00 | 0.00 | 0.00 | 57 | 1024.5 |
| 20260502010101 | 56 | 337 | 0.0 | 0.0 | 0.00 | 0.00 | 0.00 | 57 | 1024.5 |
| 20260502010002 | 56 | 337 | 0.0 | 0.0 | 0.00 | 0.00 | 0.00 | 57 | 1024.5 |
| 20260502005901 | 56 | 337 | 0.0 | 0.0 | 0.00 | 0.00 | 0.00 | 57 | 1024.5 |
| 20260502005802 | 56 | 305 | 3.0 | 0.0 | 0.00 | 0.00 | 0.00 | 57 | 1024.5 |
| 20260502005702 | 56 | 305 | 3.0 | 0.0 | 0.00 | 0.00 | 0.00 | 57 | 1024.5 |
| 20260502005602 | 56 | 305 | 5.0 | 0.0 | 0.00 | 0.00 | 0.00 | 57 | 1024.5 |
| 20260502005502 | 56 | 305 | 5.0 | 0.0 | 0.00 | 0.00 | 0.00 | 57 | 1024.6 |
| 20260502005401 | 56 | 300 | 4.0 | 0.0 | 0.00 | 0.00 | 0.00 | 57 | 1024.6 |
| 20260502005305 | 56 | 300 | 4.0 | 0.0 | 0.00 | 0.00 | 0.00 | 57 | 1024.6 |
| 20260502005202 | 56 | 300 | 4.0 | 0.0 | 0.00 | 0.00 | 0.00 | 57 | 1024.6 |
| 20260502005102 | 56 | 300 | 4.0 | 0.0 | 0.00 | 0.00 | 0.00 | 57 | 1024.5 |
| 20260502005002 | 56 | 300 | 4.0 | 0.0 | 0.00 | 0.00 | 0.00 | 57 | 1024.6 |
| 20260502004902 | 56 | 300 | 4.0 | 0.0 | 0.00 | 0.00 | 0.00 | 57 | 1024.6 |
| 20260502004801 | 56 | 300 | 4.0 | 0.0 | 0.00 | 0.00 | 0.00 | 57 | 1024.6 |
| 20260502004702 | 56 | 300 | 4.0 | 0.0 | 0.00 | 0.00 | 0.00 | 57 | 1024.6 |
| 20260502004601 | 56 | 300 | 4.0 | 0.0 | 0.00 | 0.00 | 0.00 | 57 | 1024.6 |
| 20260502004502 | 56 | 315 | 3.0 | 0.0 | 0.00 | 0.00 | 0.00 | 57 | 1024.6 |
| 20260502004401 | 56 | 315 | 3.0 | 0.0 | 0.00 | 0.00 | 0.00 | 57 | 1024.6 |
| 20260502004302 | 56 | 320 | 4.0 | 0.0 | 0.00 | 0.00 | 0.00 | 56 | 1024.8 |
| 20260502004201 | 56 | 320 | 4.0 | 0.0 | 0.00 | 0.00 | 0.00 | 56 | 1024.8 |
| 20260502004102 | 56 | 320 | 3.0 | 0.0 | 0.00 | 0.00 | 0.00 | 56 | 1024.8 |
| 20260502004002 | 56 | 320 | 3.0 | 0.0 | 0.00 | 0.00 | 0.00 | 56 | 1024.8 |
| 20260502003901 | 56 | 320 | 3.0 | 0.0 | 0.00 | 0.00 | 0.00 | 56 | 1024.8 |
| 20260502003802 | 56 | 300 | 4.0 | 0.0 | 0.00 | 0.00 | 0.00 | 56 | 1024.8 |
| 20260502003701 | 56 | 300 | 4.0 | 0.0 | 0.00 | 0.00 | 0.00 | 56 | 1024.8 |
| 20260502003602 | 56 | 300 | 4.0 | 0.0 | 0.00 | 0.00 | 0.00 | 56 | 1024.8 |
| 20260502003502 | 56 | 295 | 3.0 | 0.0 | 0.00 | 0.00 | 0.00 | 56 | 1024.8 |
| 20260502003402 | 56 | 295 | 3.0 | 0.0 | 0.00 | 0.00 | 0.00 | 56 | 1024.8 |
| 20260502003302 | 56 | 305 | 4.0 | 0.0 | 0.00 | 0.00 | 0.00 | 56 | 1024.8 |
| 20260502003202 | 56 | 305 | 4.0 | 0.0 | 0.00 | 0.00 | 0.00 | 56 | 1024.8 |
| 20260502003102 | 56 | 315 | 6.0 | 0.0 | 0.00 | 0.00 | 0.00 | 56 | 1024.8 |
| 20260502003001 | 56 | 315 | 6.0 | 0.0 | 0.00 | 0.00 | 0.00 | 56 | 1024.8 |
| 20260502002902 | 56 | 315 | 6.0 | 0.0 | 0.00 | 0.00 | 0.00 | 56 | 1024.8 |
| 20260502002801 | 56 | 330 | 3.0 | 0.0 | 0.00 | 0.00 | 0.00 | 56 | 1024.8 |
| 20260502002702 | 56 | 330 | 3.0 | 0.0 | 0.00 | 0.00 | 0.00 | 56 | 1024.8 |
| 20260502002601 | 56 | 330 | 3.0 | 0.0 | 0.00 | 0.00 | 0.00 | 56 | 1024.8 |
| 20260502002502 | 56 | 300 | 3.0 | 0.0 | 0.00 | 0.00 | 0.00 | 56 | 1024.8 |
| 20260502002402 | 56 | 300 | 3.0 | 0.0 | 0.00 | 0.00 | 0.00 | 56 | 1024.8 |
| 20260502002305 | 56 | 300 | 3.0 | 0.0 | 0.00 | 0.00 | 0.00 | 56 | 1024.8 |
| 20260502002202 | 57 | 310 | 4.0 | 0.0 | 0.00 | 0.00 | 0.00 | 56 | 1024.8 |
| 20260502002101 | 57 | 310 | 4.0 | 0.0 | 0.00 | 0.00 | 0.00 | 56 | 1024.8 |
| 20260502002002 | 56 | 305 | 7.0 | 0.0 | 0.00 | 0.00 | 0.00 | 56 | 1024.8 |
| 20260502001901 | 56 | 305 | 7.0 | 0.0 | 0.00 | 0.00 | 0.00 | 56 | 1024.8 |
| 20260502001802 | 56 | 315 | 6.0 | 0.0 | 0.00 | 0.00 | 0.00 | 56 | 1024.8 |
| 20260502001702 | 56 | 315 | 6.0 | 0.0 | 0.00 | 0.00 | 0.00 | 56 | 1024.8 |
| 20260502001601 | 56 | 315 | 6.0 | 0.0 | 0.00 | 0.00 | 0.00 | 56 | 1024.8 |
| 20260502001502 | 57 | 320 | 0.0 | 0.0 | 0.00 | 0.00 | 0.00 | 56 | 1024.9 |
| 20260502001401 | 57 | 320 | 0.0 | 0.0 | 0.00 | 0.00 | 0.00 | 56 | 1024.9 |
| 20260502001302 | 57 | 320 | 0.0 | 0.0 | 0.00 | 0.00 | 0.00 | 56 | 1024.8 |
| 20260502001201 | 57 | 320 | 5.0 | 0.0 | 0.00 | 0.00 | 0.00 | 56 | 1024.8 |
| 20260502001102 | 57 | 320 | 5.0 | 0.0 | 0.00 | 0.00 | 0.00 | 56 | 1024.8 |
| 20260502001001 | 56 | 317 | 7.0 | 0.0 | 0.00 | 0.00 | 0.00 | 56 | 1024.8 |
| 20260502000902 | 56 | 317 | 7.0 | 0.0 | 0.00 | 0.00 | 0.00 | 56 | 1024.8 |
| 20260502000802 | 57 | 322 | 5.0 | 0.0 | 0.00 | 0.00 | 0.00 | 55 | 1024.8 |
| 20260502000701 | 57 | 322 | 5.0 | 0.0 | 0.00 | 0.00 | 0.00 | 55 | 1024.8 |
| 20260502000602 | 57 | 322 | 5.0 | 0.0 | 0.00 | 0.00 | 0.00 | 55 | 1024.8 |
| 20260502000501 | 57 | 322 | 6.0 | 0.0 | 0.00 | 0.00 | 0.00 | 55 | 1024.9 |
| 20260502000402 | 57 | 322 | 6.0 | 0.0 | 0.00 | 0.00 | 0.00 | 55 | 1024.9 |
| 20260502000302 | 57 | 322 | 6.0 | 0.0 | 0.00 | 0.00 | 0.00 | 55 | 1024.8 |
| 20260502000203 | 57 | 320 | 4.0 | 0.0 | 0.00 | 0.00 | 0.00 | 55 | 1024.9 |
| 20260502000001 | 57 | 315 | 5.0 | 0.0 | 0.00 | 0.00 | 0.00 | 55 | 1024.8 |
| 20260501235902 | 57 | 315 | 5.0 | 0.0 | 0.00 | 0.00 | 0.00 | 55 | 1024.9 |
| 20260501235801 | 57 | 322 | 7.0 | 0.0 | 0.00 | 0.00 | 0.00 | 55 | 1024.9 |
| 20260501235702 | 57 | 322 | 7.0 | 0.0 | 0.00 | 0.00 | 0.00 | 55 | 1024.9 |
| 20260501235601 | 57 | 322 | 7.0 | 0.0 | 0.00 | 0.00 | 0.00 | 55 | 1024.9 |
| 20260501235502 | 57 | 322 | 7.0 | 0.0 | 0.00 | 0.00 | 0.00 | 55 | 1024.9 |
| 20260501235402 | 57 | 322 | 7.0 | 0.0 | 0.00 | 0.00 | 0.00 | 55 | 1024.9 |
| 20260501235305 | 57 | 345 | 6.0 | 0.0 | 0.00 | 0.00 | 0.00 | 55 | 1024.9 |
| 20260501235202 | 57 | 345 | 6.0 | 0.0 | 0.00 | 0.00 | 0.00 | 55 | 1025.0 |
| 20260501235101 | 57 | 345 | 6.0 | 0.0 | 0.00 | 0.00 | 0.00 | 55 | 1025.0 |
| 20260501235002 | 57 | 350 | 6.0 | 0.0 | 0.00 | 0.00 | 0.00 | 55 | 1025.0 |
| 20260501234902 | 57 | 350 | 6.0 | 0.0 | 0.00 | 0.00 | 0.00 | 55 | 1025.0 |
| 20260501234801 | 57 | 340 | 4.0 | 0.0 | 0.00 | 0.00 | 0.00 | 55 | 1025.0 |
| 20260501234702 | 57 | 340 | 4.0 | 0.0 | 0.00 | 0.00 | 0.00 | 55 | 1025.0 |
| 20260501234601 | 57 | 340 | 4.0 | 0.0 | 0.00 | 0.00 | 0.00 | 55 | 1025.0 |
| 20260501234502 | 57 | 327 | 8.0 | 0.0 | 0.00 | 0.00 | 0.00 | 55 | 1025.0 |
| 20260501234401 | 57 | 327 | 8.0 | 0.0 | 0.00 | 0.00 | 0.00 | 55 | 1025.0 |
| 20260501234302 | 57 | 327 | 0.0 | 0.0 | 0.00 | 0.00 | 0.00 | 55 | 1025.0 |
| 20260501234201 | 57 | 327 | 0.0 | 0.0 | 0.00 | 0.00 | 0.00 | 55 | 1025.1 |
| 20260501234102 | 57 | 327 | 0.0 | 0.0 | 0.00 | 0.00 | 0.00 | 55 | 1025.0 |
| 20260501234002 | 57 | 327 | 10.0 | 0.0 | 0.00 | 0.00 | 0.00 | 55 | 1025.0 |
| 20260501233902 | 57 | 327 | 10.0 | 0.0 | 0.00 | 0.00 | 0.00 | 55 | 1025.1 |
| 20260501233802 | 57 | 305 | 6.0 | 0.0 | 0.00 | 0.00 | 0.00 | 55 | 1025.1 |
| 20260501233701 | 57 | 305 | 6.0 | 0.0 | 0.00 | 0.00 | 0.00 | 55 | 1025.1 |
| 20260501233602 | 57 | 305 | 6.0 | 0.0 | 0.00 | 0.00 | 0.00 | 55 | 1025.1 |
| 20260501233501 | 57 | 312 | 4.0 | 0.0 | 0.00 | 0.00 | 0.00 | 55 | 1025.2 |
| 20260501233402 | 57 | 312 | 4.0 | 0.0 | 0.00 | 0.00 | 0.00 | 55 | 1025.2 |
| 20260501233301 | 57 | 320 | 6.0 | 0.0 | 0.00 | 0.00 | 0.00 | 55 | 1025.2 |
| 20260501233202 | 57 | 320 | 6.0 | 0.0 | 0.00 | 0.00 | 0.00 | 55 | 1025.2 |
| 20260501233102 | 57 | 320 | 6.0 | 0.0 | 0.00 | 0.00 | 0.00 | 55 | 1025.2 |
| 20260501233001 | 57 | 330 | 3.0 | 0.0 | 0.00 | 0.00 | 0.00 | 55 | 1025.2 |
| 20260501232902 | 57 | 330 | 3.0 | 0.0 | 0.00 | 0.00 | 0.00 | 55 | 1025.2 |
| 20260501232801 | 57 | 330 | 3.0 | 0.0 | 0.00 | 0.00 | 0.00 | 55 | 1025.2 |
| 20260501232702 | 57 | 340 | 5.0 | 0.0 | 0.00 | 0.00 | 0.00 | 55 | 1025.2 |
| 20260501232601 | 57 | 340 | 5.0 | 0.0 | 0.00 | 0.00 | 0.00 | 55 | 1025.3 |
| 20260501232502 | 57 | 342 | 4.0 | 0.0 | 0.00 | 0.00 | 0.00 | 55 | 1025.3 |
| 20260501232402 | 57 | 342 | 4.0 | 0.0 | 0.00 | 0.00 | 0.00 | 55 | 1025.2 |
| 20260501232305 | 57 | 342 | 4.0 | 0.0 | 0.00 | 0.00 | 0.00 | 55 | 1025.2 |
| 20260501232202 | 57 | 342 | 4.0 | 0.0 | 0.00 | 0.00 | 0.00 | 55 | 1025.3 |
| 20260501232101 | 57 | 342 | 4.0 | 0.0 | 0.00 | 0.00 | 0.00 | 55 | 1025.3 |
| 20260501232002 | 57 | 325 | 5.0 | 0.0 | 0.00 | 0.00 | 0.00 | 55 | 1025.2 |
| 20260501231901 | 57 | 325 | 5.0 | 0.0 | 0.00 | 0.00 | 0.00 | 55 | 1025.2 |
| 20260501231801 | 57 | 325 | 5.0 | 0.0 | 0.00 | 0.00 | 0.00 | 55 | 1025.2 |
| 20260501231702 | 57 | 325 | 6.0 | 0.0 | 0.00 | 0.00 | 0.00 | 55 | 1025.2 |
| 20260501231601 | 57 | 325 | 6.0 | 0.0 | 0.00 | 0.00 | 0.00 | 55 | 1025.2 |
| 20260501231502 | 57 | 302 | 7.0 | 0.0 | 0.00 | 0.00 | 0.00 | 54 | 1025.2 |
| 20260501231401 | 57 | 302 | 7.0 | 0.0 | 0.00 | 0.00 | 0.00 | 54 | 1025.2 |
| 20260501231302 | 57 | 325 | 7.0 | 0.0 | 0.00 | 0.00 | 0.00 | 55 | 1025.2 |
| 20260501231201 | 57 | 325 | 7.0 | 0.0 | 0.00 | 0.00 | 0.00 | 55 | 1025.2 |
| 20260501231102 | 57 | 325 | 7.0 | 0.0 | 0.00 | 0.00 | 0.00 | 55 | 1025.2 |
| 20260501231002 | 57 | 332 | 6.0 | 0.0 | 0.00 | 0.00 | 0.00 | 54 | 1025.2 |
| 20260501230901 | 57 | 332 | 6.0 | 0.0 | 0.00 | 0.00 | 0.00 | 54 | 1025.2 |
| 20260501230802 | 57 | 332 | 6.0 | 0.0 | 0.00 | 0.00 | 0.00 | 54 | 1025.2 |
| 20260501230701 | 57 | 305 | 6.0 | 0.0 | 0.00 | 0.00 | 0.00 | 54 | 1025.2 |
| 20260501230602 | 57 | 305 | 6.0 | 0.0 | 0.00 | 0.00 | 0.00 | 54 | 1025.2 |
| 20260501230501 | 57 | 305 | 6.0 | 0.0 | 0.00 | 0.00 | 0.00 | 54 | 1025.2 |
| 20260501230402 | 58 | 320 | 5.0 | 0.0 | 0.00 | 0.00 | 0.00 | 54 | 1025.2 |
| 20260501230302 | 58 | 320 | 5.0 | 0.0 | 0.00 | 0.00 | 0.00 | 54 | 1025.3 |
| 20260501230201 | 58 | 320 | 5.0 | 0.0 | 0.00 | 0.00 | 0.00 | 54 | 1025.2 |
| 20260501230001 | 58 | 320 | 5.0 | 0.0 | 0.00 | 0.00 | 0.00 | 54 | 1025.3 |
| 20260501225902 | 57 | 330 | 6.0 | 0.0 | 0.00 | 0.00 | 0.00 | 54 | 1025.3 |
| 20260501225801 | 57 | 317 | 5.0 | 0.0 | 0.00 | 0.00 | 0.00 | 54 | 1025.3 |
| 20260501225702 | 58 | 317 | 6.0 | 0.0 | 0.00 | 0.00 | 0.00 | 54 | 1025.4 |
| 20260501225602 | 58 | 320 | 13.0 | 0.0 | 0.00 | 0.00 | 0.00 | 54 | 1025.3 |
| 20260501225501 | 58 | 315 | 4.0 | 0.0 | 0.00 | 0.00 | 0.00 | 54 | 1025.3 |
| 20260501225402 | 58 | 322 | 5.0 | 0.0 | 0.00 | 0.00 | 0.00 | 54 | 1025.3 |
| 20260501225301 | 58 | 322 | 5.0 | 0.0 | 0.00 | 0.00 | 0.00 | 54 | 1025.3 |
| 20260501225202 | 58 | 330 | 7.0 | 0.0 | 0.00 | 0.00 | 0.00 | 54 | 1025.3 |
| 20260501225101 | 58 | 330 | 7.0 | 0.0 | 0.00 | 0.00 | 0.00 | 54 | 1025.3 |
| 20260501225002 | 58 | 330 | 7.0 | 0.0 | 0.00 | 0.00 | 0.00 | 54 | 1025.3 |
| 20260501224901 | 58 | 345 | 9.0 | 0.0 | 0.00 | 0.00 | 0.00 | 54 | 1025.3 |
| 20260501224801 | 58 | 345 | 9.0 | 0.0 | 0.00 | 0.00 | 0.00 | 54 | 1025.4 |
| 20260501224702 | 58 | 325 | 5.0 | 0.0 | 0.00 | 0.00 | 0.00 | 54 | 1025.4 |
| 20260501224601 | 58 | 325 | 5.0 | 0.0 | 0.00 | 0.00 | 0.00 | 54 | 1025.4 |
| 20260501224502 | 58 | 325 | 5.0 | 0.0 | 0.00 | 0.00 | 0.00 | 54 | 1025.4 |
| 20260501224401 | 58 | 307 | 4.0 | 0.0 | 0.00 | 0.00 | 0.00 | 54 | 1025.3 |
| 20260501224302 | 58 | 307 | 4.0 | 0.0 | 0.00 | 0.00 | 0.00 | 54 | 1025.3 |
| 20260501224201 | 58 | 307 | 4.0 | 0.0 | 0.00 | 0.00 | 0.00 | 54 | 1025.3 |
| 20260501224102 | 58 | 325 | 7.0 | 0.0 | 0.00 | 0.00 | 0.00 | 53 | 1025.4 |
| 20260501224002 | 58 | 325 | 7.0 | 0.0 | 0.00 | 0.00 | 0.00 | 53 | 1025.3 |
| 20260501223901 | 58 | 330 | 6.0 | 0.0 | 0.00 | 0.00 | 0.00 | 53 | 1025.3 |
| 20260501223802 | 58 | 327 | 6.0 | 0.0 | 0.00 | 0.00 | 0.00 | 53 | 1025.4 |
| 20260501223701 | 58 | 327 | 6.0 | 0.0 | 0.00 | 0.00 | 0.00 | 53 | 1025.4 |
| 20260501223602 | 58 | 327 | 5.0 | 0.0 | 0.00 | 0.00 | 0.00 | 53 | 1025.4 |
| 20260501223501 | 58 | 327 | 5.0 | 0.0 | 0.00 | 0.00 | 0.00 | 53 | 1025.4 |
| 20260501223402 | 58 | 342 | 7.0 | 0.0 | 0.00 | 0.00 | 0.00 | 53 | 1025.4 |
| 20260501223302 | 58 | 342 | 7.0 | 0.0 | 0.00 | 0.00 | 0.00 | 53 | 1025.4 |
| 20260501223202 | 58 | 342 | 7.0 | 0.0 | 0.00 | 0.00 | 0.00 | 53 | 1025.4 |
| 20260501223102 | 58 | 332 | 5.0 | 0.0 | 0.00 | 0.00 | 0.00 | 53 | 1025.3 |
| 20260501223001 | 58 | 332 | 5.0 | 0.0 | 0.00 | 0.00 | 0.00 | 53 | 1025.4 |
| 20260501222902 | 58 | 332 | 5.0 | 0.0 | 0.00 | 0.00 | 0.00 | 53 | 1025.4 |
| 20260501222801 | 58 | 347 | 4.0 | 0.0 | 0.00 | 0.00 | 0.00 | 53 | 1025.4 |
| 20260501222702 | 58 | 347 | 4.0 | 0.0 | 0.00 | 0.00 | 0.00 | 53 | 1025.4 |
| 20260501222601 | 58 | 345 | 10.0 | 0.0 | 0.00 | 0.00 | 0.00 | 53 | 1025.4 |
| 20260501222502 | 58 | 345 | 10.0 | 0.0 | 0.00 | 0.00 | 0.00 | 53 | 1025.4 |
| 20260501222401 | 58 | 345 | 10.0 | 0.0 | 0.00 | 0.00 | 0.00 | 53 | 1025.4 |
| 20260501222202 | 58 | 340 | 6.0 | 0.0 | 0.00 | 0.00 | 0.00 | 53 | 1025.4 |
| 20260501222101 | 58 | 337 | 6.0 | 0.0 | 0.00 | 0.00 | 0.00 | 53 | 1025.4 |
| 20260501222002 | 58 | 337 | 6.0 | 0.0 | 0.00 | 0.00 | 0.00 | 53 | 1025.4 |
| 20260501221901 | 58 | 355 | 9.0 | 0.0 | 0.00 | 0.00 | 0.00 | 53 | 1025.3 |
| 20260501221802 | 58 | 355 | 9.0 | 0.0 | 0.00 | 0.00 | 0.00 | 53 | 1025.4 |
| 20260501221701 | 58 | 355 | 9.0 | 0.0 | 0.00 | 0.00 | 0.00 | 53 | 1025.4 |
| 20260501221602 | 58 | 332 | 15.0 | 0.0 | 0.00 | 0.00 | 0.00 | 54 | 1025.4 |
| 20260501221502 | 58 | 330 | 6.0 | 0.0 | 0.00 | 0.00 | 0.00 | 54 | 1025.4 |
| 20260501221401 | 57 | 327 | 5.0 | 0.0 | 0.00 | 0.00 | 0.00 | 54 | 1025.3 |
| 20260501221302 | 57 | 327 | 5.0 | 0.0 | 0.00 | 0.00 | 0.00 | 54 | 1025.4 |
| 20260501221201 | 57 | 327 | 5.0 | 0.0 | 0.00 | 0.00 | 0.00 | 54 | 1025.4 |
| 20260501221102 | 58 | 322 | 5.0 | 0.0 | 0.00 | 0.00 | 0.00 | 53 | 1025.4 |
| 20260501221002 | 58 | 322 | 5.0 | 0.0 | 0.00 | 0.00 | 0.00 | 53 | 1025.4 |
| 20260501220902 | 58 | 322 | 5.0 | 0.0 | 0.00 | 0.00 | 0.00 | 53 | 1025.4 |
| 20260501220802 | 58 | 322 | 5.0 | 0.0 | 0.00 | 0.00 | 0.00 | 53 | 1025.4 |
| 20260501220702 | 58 | 322 | 5.0 | 0.0 | 0.00 | 0.00 | 0.00 | 53 | 1025.4 |
| 20260501220602 | 58 | 335 | 4.0 | 0.0 | 0.00 | 0.00 | 0.00 | 53 | 1025.4 |
| 20260501220501 | 58 | 335 | 4.0 | 0.0 | 0.00 | 0.00 | 0.00 | 53 | 1025.4 |
| 20260501220402 | 58 | 335 | 4.0 | 0.0 | 0.00 | 0.00 | 0.00 | 53 | 1025.4 |
| 20260501220301 | 58 | 310 | 6.0 | 0.0 | 0.00 | 0.00 | 0.00 | 54 | 1025.4 |
| 20260501220202 | 58 | 310 | 6.0 | 0.0 | 0.00 | 0.00 | 0.00 | 54 | 1025.4 |
| 20260501220002 | 58 | 312 | 9.0 | 0.0 | 0.00 | 0.00 | 0.00 | 54 | 1025.4 |
| 20260501215902 | 58 | 312 | 9.0 | 0.0 | 0.00 | 0.00 | 0.00 | 54 | 1025.4 |
| 20260501215801 | 57 | 312 | 7.0 | 0.0 | 0.00 | 0.00 | 0.00 | 54 | 1025.4 |
| 20260501215702 | 57 | 312 | 7.0 | 0.0 | 0.00 | 0.00 | 0.00 | 54 | 1025.4 |
| 20260501215601 | 57 | 320 | 10.0 | 0.0 | 0.00 | 0.00 | 0.00 | 54 | 1025.4 |
| 20260501215502 | 57 | 320 | 10.0 | 0.0 | 0.00 | 0.00 | 0.00 | 54 | 1025.4 |
| 20260501215401 | 57 | 320 | 10.0 | 0.0 | 0.00 | 0.00 | 0.00 | 54 | 1025.4 |
| 20260501215305 | 57 | 302 | 4.0 | 0.0 | 0.00 | 0.00 | 0.00 | 54 | 1025.4 |
| 20260501215202 | 57 | 302 | 4.0 | 0.0 | 0.00 | 0.00 | 0.00 | 54 | 1025.4 |
| 20260501215101 | 57 | 302 | 4.0 | 0.0 | 0.00 | 0.00 | 0.00 | 54 | 1025.4 |
| 20260501215002 | 57 | 300 | 4.0 | 0.0 | 0.00 | 0.00 | 0.00 | 54 | 1025.4 |
| 20260501214901 | 57 | 300 | 4.0 | 0.0 | 0.00 | 0.00 | 0.00 | 54 | 1025.4 |
| 20260501214802 | 57 | 287 | 4.0 | 0.0 | 0.00 | 0.00 | 0.00 | 54 | 1025.4 |
| 20260501214702 | 57 | 287 | 4.0 | 0.0 | 0.00 | 0.00 | 0.00 | 54 | 1025.4 |
| 20260501214601 | 57 | 287 | 4.0 | 0.0 | 0.00 | 0.00 | 0.00 | 54 | 1025.4 |
| 20260501214502 | 57 | 287 | 4.0 | 0.0 | 0.00 | 0.00 | 0.00 | 54 | 1025.4 |
| 20260501214401 | 57 | 287 | 4.0 | 0.0 | 0.00 | 0.00 | 0.00 | 54 | 1025.4 |
| 20260501214302 | 57 | 290 | 7.0 | 0.0 | 0.00 | 0.00 | 0.00 | 54 | 1025.4 |
| 20260501214201 | 57 | 290 | 7.0 | 0.0 | 0.00 | 0.00 | 0.00 | 54 | 1025.4 |
| 20260501214102 | 57 | 290 | 7.0 | 0.0 | 0.00 | 0.00 | 0.00 | 54 | 1025.4 |
| 20260501214002 | 57 | 285 | 4.0 | 0.0 | 0.00 | 0.00 | 0.00 | 54 | 1025.4 |
| 20260501213901 | 57 | 285 | 4.0 | 0.0 | 0.00 | 0.00 | 0.00 | 54 | 1025.4 |
| 20260501213802 | 57 | 285 | 4.0 | 0.0 | 0.00 | 0.00 | 0.00 | 54 | 1025.4 |
| 20260501213701 | 56 | 265 | 3.0 | 0.0 | 0.00 | 0.00 | 0.00 | 55 | 1025.4 |
| 20260501213602 | 56 | 265 | 3.0 | 0.0 | 0.00 | 0.00 | 0.00 | 55 | 1025.4 |
| 20260501213501 | 56 | 265 | 3.0 | 0.0 | 0.00 | 0.00 | 0.00 | 55 | 1025.4 |
| 20260501213402 | 56 | 265 | 3.0 | 0.0 | 0.00 | 0.00 | 0.00 | 55 | 1025.4 |
| 20260501213302 | 56 | 260 | 5.0 | 0.0 | 0.00 | 0.00 | 0.00 | 55 | 1025.4 |
| 20260501213202 | 56 | 260 | 5.0 | 0.0 | 0.00 | 0.00 | 0.00 | 55 | 1025.4 |
| 20260501213102 | 56 | 260 | 5.0 | 0.0 | 0.00 | 0.00 | 0.00 | 55 | 1025.4 |
| 20260501213001 | 56 | 275 | 7.0 | 0.0 | 0.00 | 0.00 | 0.00 | 55 | 1025.4 |
| 20260501212902 | 56 | 275 | 7.0 | 0.0 | 0.00 | 0.00 | 0.00 | 55 | 1025.4 |
| 20260501212801 | 56 | 275 | 7.0 | 0.0 | 0.00 | 0.00 | 0.00 | 55 | 1025.4 |
| 20260501212703 | 56 | 267 | 0.0 | 0.0 | 0.00 | 0.00 | 0.00 | 55 | 1025.4 |
| 20260501212601 | 56 | 267 | 0.0 | 0.0 | 0.00 | 0.00 | 0.00 | 55 | 1025.5 |
| 20260501212502 | 56 | 270 | 3.0 | 0.0 | 0.00 | 0.00 | 0.00 | 55 | 1025.5 |
| 20260501212402 | 56 | 270 | 3.0 | 0.0 | 0.00 | 0.00 | 0.00 | 55 | 1025.4 |
| 20260501212305 | 56 | 245 | 5.0 | 0.0 | 0.00 | 0.00 | 0.00 | 55 | 1025.4 |
| 20260501212202 | 56 | 245 | 5.0 | 0.0 | 0.00 | 0.00 | 0.00 | 55 | 1025.5 |
| 20260501212102 | 56 | 245 | 5.0 | 0.0 | 0.00 | 0.00 | 0.00 | 55 | 1025.4 |
| 20260501212002 | 56 | 265 | 3.0 | 0.0 | 0.00 | 0.00 | 0.00 | 55 | 1025.4 |
| 20260501211901 | 56 | 265 | 3.0 | 0.0 | 0.00 | 0.00 | 0.00 | 55 | 1025.5 |
| 20260501211802 | 56 | 242 | 2.0 | 0.0 | 0.00 | 0.00 | 0.00 | 56 | 1025.4 |
| 20260501211701 | 56 | 242 | 2.0 | 0.0 | 0.00 | 0.00 | 0.00 | 56 | 1025.4 |
| 20260501211602 | 56 | 242 | 2.0 | 0.0 | 0.00 | 0.00 | 0.00 | 56 | 1025.4 |
| 20260501211501 | 56 | 242 | 2.0 | 0.0 | 0.00 | 0.00 | 0.00 | 56 | 1025.4 |
| 20260501211402 | 56 | 242 | 2.0 | 0.0 | 0.00 | 0.00 | 0.00 | 56 | 1025.5 |
| 20260501211301 | 56 | 242 | 2.0 | 0.0 | 0.00 | 0.00 | 0.00 | 56 | 1025.5 |
| 20260501211202 | 56 | 245 | 4.0 | 0.0 | 0.00 | 0.00 | 0.00 | 56 | 1025.5 |
| 20260501211101 | 56 | 245 | 4.0 | 0.0 | 0.00 | 0.00 | 0.00 | 56 | 1025.5 |
| 20260501211001 | 56 | 232 | 4.0 | 0.0 | 0.00 | 0.00 | 0.00 | 56 | 1025.5 |
| 20260501210902 | 56 | 232 | 4.0 | 0.0 | 0.00 | 0.00 | 0.00 | 56 | 1025.5 |
| 20260501210801 | 56 | 232 | 4.0 | 0.0 | 0.00 | 0.00 | 0.00 | 56 | 1025.5 |
| 20260501210702 | 56 | 235 | 3.0 | 0.0 | 0.00 | 0.00 | 0.00 | 56 | 1025.5 |
| 20260501210601 | 56 | 235 | 3.0 | 0.0 | 0.00 | 0.00 | 0.00 | 56 | 1025.5 |
| 20260501210502 | 56 | 235 | 3.0 | 0.0 | 0.00 | 0.00 | 0.00 | 56 | 1025.5 |
| 20260501210402 | 56 | 235 | 3.0 | 0.0 | 0.00 | 0.00 | 0.00 | 56 | 1025.5 |
| 20260501210301 | 56 | 235 | 3.0 | 0.0 | 0.00 | 0.00 | 0.00 | 56 | 1025.5 |
| 20260501210202 | 56 | 245 | 0.0 | 0.0 | 0.00 | 0.00 | 0.00 | 56 | 1025.5 |
| 20260501210002 | 56 | 245 | 6.0 | 0.0 | 0.00 | 0.00 | 0.00 | 56 | 1025.5 |
| 20260501205901 | 56 | 245 | 6.0 | 0.0 | 0.00 | 0.00 | 0.00 | 56 | 1025.5 |
| 20260501205802 | 56 | 245 | 6.0 | 0.0 | 0.00 | 0.00 | 0.00 | 56 | 1025.5 |
| 20260501205702 | 56 | 230 | 4.0 | 0.0 | 0.00 | 0.00 | 0.00 | 56 | 1025.5 |
| 20260501205602 | 56 | 230 | 4.0 | 0.0 | 0.00 | 0.00 | 0.00 | 56 | 1025.5 |
| 20260501205502 | 56 | 235 | 3.0 | 0.0 | 0.00 | 0.00 | 0.00 | 56 | 1025.5 |
| 20260501205402 | 56 | 235 | 3.0 | 0.0 | 0.00 | 0.00 | 0.00 | 56 | 1025.5 |
| 20260501205305 | 56 | 235 | 3.0 | 0.0 | 0.00 | 0.00 | 0.00 | 56 | 1025.5 |
| 20260501205201 | 56 | 235 | 3.0 | 0.0 | 0.00 | 0.00 | 0.00 | 56 | 1025.5 |
| 20260501205102 | 56 | 242 | 4.0 | 0.0 | 0.00 | 0.00 | 0.00 | 56 | 1025.5 |
| 20260501205001 | 56 | 242 | 4.0 | 0.0 | 0.00 | 0.00 | 0.00 | 56 | 1025.5 |
| 20260501204902 | 55 | 240 | 5.0 | 0.0 | 0.00 | 0.00 | 0.00 | 57 | 1025.5 |
| 20260501204801 | 55 | 240 | 5.0 | 0.0 | 0.00 | 0.00 | 0.00 | 57 | 1025.6 |
| 20260501204702 | 55 | 245 | 7.0 | 0.0 | 0.00 | 0.00 | 0.00 | 58 | 1025.6 |
| 20260501204602 | 55 | 245 | 7.0 | 0.0 | 0.00 | 0.00 | 0.00 | 58 | 1025.6 |
| 20260501204502 | 55 | 245 | 7.0 | 0.0 | 0.00 | 0.00 | 0.00 | 58 | 1025.5 |
| 20260501204402 | 55 | 245 | 5.0 | 0.0 | 0.00 | 0.00 | 0.00 | 58 | 1025.6 |
| 20260501204301 | 55 | 245 | 5.0 | 0.0 | 0.00 | 0.00 | 0.00 | 58 | 1025.6 |
| 20260501204203 | 55 | 245 | 5.0 | 0.0 | 0.00 | 0.00 | 0.00 | 58 | 1025.6 |
| 20260501204101 | 55 | 250 | 4.0 | 0.0 | 0.00 | 0.00 | 0.00 | 59 | 1025.6 |
| 20260501204003 | 55 | 250 | 4.0 | 0.0 | 0.00 | 0.00 | 0.00 | 59 | 1025.6 |
| 20260501203902 | 54 | 242 | 5.0 | 0.0 | 0.00 | 0.00 | 0.00 | 59 | 1025.6 |
| 20260501203802 | 54 | 242 | 5.0 | 0.0 | 0.00 | 0.00 | 0.00 | 59 | 1025.6 |
| 20260501203702 | 55 | 240 | 3.0 | 0.0 | 0.00 | 0.00 | 0.00 | 59 | 1025.6 |
| 20260501203602 | 55 | 240 | 3.0 | 0.0 | 0.00 | 0.00 | 0.00 | 59 | 1025.6 |
| 20260501203502 | 55 | 240 | 3.0 | 0.0 | 0.00 | 0.00 | 0.00 | 59 | 1025.6 |
| 20260501203401 | 54 | 240 | 5.0 | 0.0 | 0.00 | 0.00 | 0.00 | 59 | 1025.6 |
| 20260501203302 | 54 | 240 | 5.0 | 0.0 | 0.00 | 0.00 | 0.00 | 59 | 1025.7 |
| 20260501203201 | 54 | 240 | 5.0 | 0.0 | 0.00 | 0.00 | 0.00 | 59 | 1025.6 |
| 20260501203102 | 54 | 230 | 5.0 | 0.0 | 0.00 | 0.00 | 0.00 | 60 | 1025.6 |
| 20260501203001 | 54 | 230 | 5.0 | 0.0 | 0.00 | 0.00 | 0.00 | 60 | 1025.6 |
| 20260501202902 | 54 | 237 | 7.0 | 0.0 | 0.00 | 0.00 | 0.00 | 60 | 1025.7 |
| 20260501202802 | 54 | 237 | 7.0 | 0.0 | 0.00 | 0.00 | 0.00 | 60 | 1025.7 |
| 20260501202701 | 54 | 230 | 5.0 | 0.0 | 0.00 | 0.00 | 0.00 | 61 | 1025.7 |
| 20260501202602 | 54 | 230 | 5.0 | 0.0 | 0.00 | 0.00 | 0.00 | 61 | 1025.6 |
| 20260501202501 | 54 | 230 | 5.0 | 0.0 | 0.00 | 0.00 | 0.00 | 61 | 1025.7 |
| 20260501202402 | 54 | 232 | 3.0 | 0.0 | 0.00 | 0.00 | 0.00 | 61 | 1025.7 |
| 20260501202301 | 54 | 232 | 3.0 | 0.0 | 0.00 | 0.00 | 0.00 | 61 | 1025.7 |
| 20260501202202 | 54 | 232 | 3.0 | 0.0 | 0.00 | 0.00 | 0.00 | 61 | 1025.7 |
| 20260501202101 | 54 | 232 | 3.0 | 0.0 | 0.00 | 0.00 | 0.00 | 61 | 1025.7 |
| 20260501202003 | 54 | 232 | 3.0 | 0.0 | 0.00 | 0.00 | 0.00 | 61 | 1025.7 |
| 20260501201901 | 54 | 242 | 3.0 | 0.0 | 0.00 | 0.00 | 0.00 | 60 | 1025.7 |
| 20260501201802 | 54 | 242 | 3.0 | 0.0 | 0.00 | 0.00 | 0.00 | 60 | 1025.7 |
| 20260501201702 | 54 | 242 | 3.0 | 0.0 | 0.00 | 0.00 | 0.00 | 60 | 1025.7 |
| 20260501201602 | 54 | 242 | 3.0 | 0.0 | 0.00 | 0.00 | 0.00 | 60 | 1025.7 |
| 20260501201501 | 54 | 242 | 3.0 | 0.0 | 0.00 | 0.00 | 0.00 | 60 | 1025.7 |
| 20260501201402 | 54 | 242 | 4.0 | 0.0 | 0.00 | 0.00 | 0.00 | 59 | 1025.7 |
| 20260501201302 | 54 | 242 | 4.0 | 0.0 | 0.00 | 0.00 | 0.00 | 59 | 1025.7 |
| 20260501201201 | 54 | 242 | 4.0 | 0.0 | 0.00 | 0.00 | 0.00 | 59 | 1025.7 |
| 20260501201102 | 54 | 230 | 3.0 | 0.0 | 0.00 | 0.00 | 0.00 | 59 | 1025.7 |
| 20260501201001 | 54 | 230 | 3.0 | 0.0 | 0.00 | 0.00 | 0.00 | 59 | 1025.7 |
| 20260501200902 | 54 | 227 | 0.0 | 0.0 | 0.00 | 0.00 | 0.00 | 59 | 1025.7 |
| 20260501200801 | 54 | 227 | 0.0 | 0.0 | 0.00 | 0.00 | 0.00 | 59 | 1025.7 |
| 20260501200702 | 54 | 227 | 0.0 | 0.0 | 0.00 | 0.00 | 0.00 | 59 | 1025.7 |
| 20260501200601 | 54 | 222 | 0.0 | 0.0 | 0.00 | 0.00 | 0.00 | 59 | 1025.7 |
| 20260501200501 | 54 | 222 | 0.0 | 0.0 | 0.00 | 0.00 | 0.00 | 59 | 1025.7 |
| 20260501200402 | 54 | 225 | 3.0 | 0.0 | 0.00 | 0.00 | 0.00 | 61 | 1025.7 |
| 20260501200301 | 54 | 225 | 3.0 | 0.0 | 0.00 | 0.00 | 0.00 | 61 | 1025.7 |
| 20260501200202 | 54 | 225 | 3.0 | 0.0 | 0.00 | 0.00 | 0.00 | 61 | 1025.7 |
| 20260501200002 | 54 | 225 | 3.0 | 0.0 | 0.00 | 0.00 | 0.00 | 61 | 1025.7 |
| 20260501195901 | 54 | 217 | 4.0 | 0.0 | 0.00 | 0.00 | 0.00 | 61 | 1025.7 |
| 20260501195802 | 54 | 217 | 4.0 | 0.0 | 0.00 | 0.00 | 0.00 | 61 | 1025.7 |
| 20260501195702 | 54 | 217 | 4.0 | 0.0 | 0.00 | 0.00 | 0.00 | 61 | 1025.7 |
| 20260501195601 | 54 | 217 | 4.0 | 0.0 | 0.00 | 0.00 | 0.00 | 61 | 1025.7 |
| 20260501195502 | 54 | 217 | 4.0 | 0.0 | 0.00 | 0.00 | 0.00 | 61 | 1025.7 |
| 20260501195401 | 54 | 215 | 0.0 | 0.0 | 0.00 | 0.00 | 0.00 | 61 | 1025.7 |
| 20260501195305 | 54 | 215 | 0.0 | 0.0 | 0.00 | 0.00 | 0.00 | 61 | 1025.7 |
| 20260501195201 | 54 | 215 | 0.0 | 0.0 | 0.00 | 0.00 | 0.00 | 61 | 1025.8 |
| 20260501195102 | 54 | 227 | 4.0 | 0.0 | 0.00 | 0.00 | 0.00 | 61 | 1025.8 |
| 20260501195003 | 54 | 227 | 4.0 | 0.0 | 0.00 | 0.00 | 0.00 | 61 | 1025.8 |
| 20260501194902 | 54 | 227 | 4.0 | 0.0 | 0.00 | 0.00 | 0.00 | 61 | 1025.8 |
| 20260501194801 | 54 | 227 | 4.0 | 0.0 | 0.00 | 0.00 | 0.00 | 61 | 1025.8 |
| 20260501194702 | 54 | 227 | 4.0 | 0.0 | 0.00 | 0.00 | 0.00 | 61 | 1025.8 |
| 20260501194601 | 54 | 220 | 0.0 | 0.0 | 0.00 | 0.00 | 0.00 | 61 | 1025.8 |
| 20260501194502 | 54 | 220 | 0.0 | 0.0 | 0.00 | 0.00 | 0.00 | 61 | 1025.8 |
| 20260501194401 | 54 | 227 | 4.0 | 0.0 | 0.00 | 0.00 | 0.00 | 61 | 1025.8 |
| 20260501194302 | 54 | 227 | 4.0 | 0.0 | 0.00 | 0.00 | 0.00 | 61 | 1025.8 |
| 20260501194202 | 54 | 227 | 4.0 | 0.0 | 0.00 | 0.00 | 0.00 | 61 | 1025.8 |
| 20260501194102 | 55 | 227 | 0.0 | 0.0 | 0.00 | 0.00 | 0.00 | 59 | 1025.8 |
| 20260501194003 | 55 | 227 | 0.0 | 0.0 | 0.00 | 0.00 | 0.00 | 59 | 1025.8 |
| 20260501193901 | 55 | 220 | 3.0 | 0.0 | 0.00 | 0.00 | 0.00 | 58 | 1025.8 |
| 20260501193802 | 55 | 220 | 3.0 | 0.0 | 0.00 | 0.00 | 0.00 | 58 | 1025.8 |
| 20260501193702 | 55 | 220 | 3.0 | 0.0 | 0.00 | 0.00 | 0.00 | 58 | 1025.8 |
| 20260501193602 | 55 | 232 | 5.0 | 0.0 | 0.00 | 0.00 | 0.00 | 59 | 1025.8 |
| 20260501193501 | 55 | 232 | 5.0 | 0.0 | 0.00 | 0.00 | 0.00 | 59 | 1025.8 |
| 20260501193402 | 55 | 232 | 5.0 | 0.0 | 0.00 | 0.00 | 0.00 | 59 | 1025.8 |
| 20260501193301 | 55 | 237 | 3.0 | 0.0 | 0.00 | 0.00 | 0.00 | 59 | 1025.8 |
| 20260501193202 | 55 | 237 | 3.0 | 0.0 | 0.00 | 0.00 | 0.00 | 59 | 1025.8 |
| 20260501193102 | 55 | 227 | 0.0 | 0.0 | 0.00 | 0.00 | 0.00 | 59 | 1025.8 |
| 20260501193001 | 55 | 227 | 0.0 | 0.0 | 0.00 | 0.00 | 0.00 | 59 | 1025.9 |
| 20260501192902 | 55 | 227 | 0.0 | 0.0 | 0.00 | 0.00 | 0.00 | 59 | 1025.8 |
| 20260501192801 | 55 | 227 | 0.0 | 0.0 | 0.00 | 0.00 | 0.00 | 59 | 1025.8 |
| 20260501192702 | 55 | 227 | 0.0 | 0.0 | 0.00 | 0.00 | 0.00 | 59 | 1025.9 |
| 20260501192601 | 55 | 227 | 0.0 | 0.0 | 0.00 | 0.00 | 0.00 | 59 | 1025.8 |
| 20260501192502 | 55 | 242 | 5.0 | 0.0 | 0.00 | 0.00 | 0.00 | 60 | 1025.9 |
| 20260501192401 | 55 | 242 | 5.0 | 0.0 | 0.00 | 0.00 | 0.00 | 60 | 1025.8 |
| 20260501192306 | 55 | 242 | 5.0 | 0.0 | 0.00 | 0.00 | 0.00 | 60 | 1025.9 |
| 20260501192202 | 55 | 235 | 0.0 | 0.0 | 0.00 | 0.00 | 0.00 | 59 | 1025.9 |
| 20260501192102 | 55 | 235 | 0.0 | 0.0 | 0.00 | 0.00 | 0.00 | 59 | 1025.9 |
| 20260501192002 | 56 | 242 | 0.0 | 0.0 | 0.00 | 0.00 | 0.00 | 57 | 1025.9 |
| 20260501191901 | 56 | 242 | 0.0 | 0.0 | 0.00 | 0.00 | 0.00 | 57 | 1025.9 |
| 20260501191802 | 56 | 225 | 0.0 | 0.0 | 0.00 | 0.00 | 0.00 | 55 | 1025.9 |
| 20260501191701 | 56 | 225 | 0.0 | 0.0 | 0.00 | 0.00 | 0.00 | 55 | 1025.9 |
| 20260501191602 | 56 | 225 | 0.0 | 0.0 | 0.00 | 0.00 | 0.00 | 55 | 1025.9 |
| 20260501191501 | 56 | 205 | 0.0 | 0.0 | 0.00 | 0.00 | 0.00 | 55 | 1025.9 |
| 20260501191402 | 56 | 205 | 0.0 | 0.0 | 0.00 | 0.00 | 0.00 | 55 | 1025.9 |
| 20260501191302 | 56 | 210 | 0.0 | 0.0 | 0.00 | 0.00 | 0.00 | 55 | 1025.9 |
| 20260501191202 | 56 | 210 | 0.0 | 0.0 | 0.00 | 0.00 | 0.00 | 55 | 1025.9 |
| 20260501191102 | 57 | 217 | 4.0 | 0.0 | 0.00 | 0.00 | 0.00 | 56 | 1025.9 |
| 20260501191001 | 57 | 217 | 4.0 | 0.0 | 0.00 | 0.00 | 0.00 | 56 | 1025.9 |
| 20260501190902 | 57 | 217 | 4.0 | 0.0 | 0.00 | 0.00 | 0.00 | 56 | 1025.9 |
| 20260501190801 | 57 | 215 | 4.0 | 0.0 | 0.00 | 0.00 | 0.00 | 55 | 1025.9 |
| 20260501190702 | 57 | 215 | 4.0 | 0.0 | 0.00 | 0.00 | 0.00 | 55 | 1025.9 |
| 20260501190602 | 57 | 212 | 4.0 | 0.0 | 0.00 | 0.00 | 0.00 | 55 | 1025.9 |
| 20260501190501 | 57 | 212 | 4.0 | 0.0 | 0.00 | 0.00 | 0.00 | 55 | 1025.9 |
| 20260501190402 | 57 | 212 | 4.0 | 0.0 | 0.00 | 0.00 | 0.00 | 55 | 1025.9 |
| 20260501190301 | 58 | 235 | 3.0 | 0.0 | 0.00 | 0.00 | 0.00 | 54 | 1025.9 |
| 20260501190202 | 58 | 235 | 3.0 | 0.0 | 0.00 | 0.00 | 0.00 | 54 | 1025.9 |
| 20260501190002 | 58 | 242 | 0.0 | 0.0 | 0.00 | 0.00 | 0.00 | 53 | 1025.9 |
| 20260501185901 | 58 | 242 | 0.0 | 0.0 | 0.00 | 0.00 | 0.00 | 53 | 1025.8 |
| 20260501185802 | 58 | 230 | 3.0 | 0.0 | 0.00 | 0.00 | 0.00 | 52 | 1025.9 |
| 20260501185702 | 58 | 230 | 3.0 | 0.0 | 0.00 | 0.00 | 0.00 | 52 | 1025.9 |
| 20260501185601 | 58 | 225 | 0.0 | 0.0 | 0.00 | 0.00 | 0.00 | 51 | 1025.8 |
| 20260501185502 | 58 | 225 | 0.0 | 0.0 | 0.00 | 0.00 | 0.00 | 51 | 1025.9 |
| 20260501185401 | 58 | 225 | 0.0 | 0.0 | 0.00 | 0.00 | 0.00 | 51 | 1025.9 |
| 20260501185305 | 58 | 242 | 0.0 | 0.0 | 0.00 | 0.00 | 0.00 | 51 | 1025.8 |
| 20260501185202 | 58 | 242 | 0.0 | 0.0 | 0.00 | 0.00 | 0.00 | 51 | 1025.8 |
| 20260501185102 | 58 | 242 | 0.0 | 0.0 | 0.00 | 0.00 | 0.00 | 51 | 1025.8 |
| 20260501185001 | 59 | 232 | 3.0 | 0.0 | 0.00 | 0.00 | 0.00 | 51 | 1025.9 |
| 20260501184902 | 59 | 232 | 3.0 | 0.0 | 0.00 | 0.00 | 0.00 | 51 | 1025.8 |
| 20260501184801 | 59 | 230 | 2.0 | 0.0 | 0.00 | 0.00 | 0.00 | 51 | 1025.8 |
| 20260501184702 | 59 | 230 | 2.0 | 0.0 | 0.00 | 0.00 | 0.00 | 51 | 1025.8 |
| 20260501184603 | 59 | 250 | 0.0 | 0.0 | 0.00 | 0.00 | 0.00 | 51 | 1025.8 |
| 20260501184504 | 59 | 250 | 0.0 | 0.0 | 0.00 | 0.00 | 0.00 | 51 | 1025.8 |
| 20260501184402 | 59 | 250 | 0.0 | 0.0 | 0.00 | 0.00 | 0.00 | 51 | 1025.8 |
| 20260501184301 | 59 | 250 | 0.0 | 0.0 | 0.00 | 0.00 | 0.00 | 51 | 1025.8 |
| 20260501184202 | 59 | 250 | 0.0 | 0.0 | 0.00 | 0.00 | 0.00 | 51 | 1025.8 |
| 20260501184101 | 59 | 220 | 0.0 | 0.0 | 0.00 | 0.00 | 0.00 | 51 | 1025.8 |
| 20260501184002 | 59 | 220 | 0.0 | 0.0 | 0.00 | 0.00 | 0.00 | 51 | 1025.8 |
| 20260501183901 | 59 | 220 | 0.0 | 0.0 | 0.00 | 0.00 | 0.00 | 51 | 1025.8 |
| 20260501183802 | 60 | 217 | 2.0 | 0.0 | 0.00 | 0.00 | 0.00 | 50 | 1025.8 |
| 20260501183702 | 60 | 217 | 2.0 | 0.0 | 0.00 | 0.00 | 0.00 | 50 | 1025.8 |
| 20260501183601 | 60 | 217 | 2.0 | 0.0 | 0.00 | 0.00 | 0.00 | 50 | 1025.7 |
| 20260501183502 | 60 | 217 | 2.0 | 0.0 | 0.00 | 0.00 | 0.00 | 50 | 1025.8 |
| 20260501183401 | 60 | 217 | 2.0 | 0.0 | 0.00 | 0.00 | 0.00 | 50 | 1025.8 |
| 20260501183302 | 60 | 225 | 0.0 | 0.0 | 0.00 | 0.00 | 0.00 | 49 | 1025.8 |
| 20260501183201 | 60 | 225 | 0.0 | 0.0 | 0.00 | 0.00 | 0.00 | 49 | 1025.8 |
| 20260501183102 | 60 | 225 | 0.0 | 0.0 | 0.00 | 0.00 | 0.00 | 49 | 1025.8 |
| 20260501183002 | 60 | 225 | 0.0 | 0.0 | 0.00 | 0.00 | 0.00 | 49 | 1025.7 |
| 20260501182901 | 60 | 225 | 0.0 | 0.0 | 0.00 | 0.00 | 0.00 | 49 | 1025.8 |
| 20260501182802 | 60 | 225 | 0.0 | 0.0 | 0.00 | 0.00 | 0.00 | 49 | 1025.8 |
| 20260501182701 | 61 | 232 | 0.0 | 0.0 | 0.00 | 0.00 | 0.00 | 49 | 1025.8 |
| 20260501182602 | 61 | 232 | 0.0 | 0.0 | 0.00 | 0.00 | 0.00 | 49 | 1025.8 |
| 20260501182501 | 61 | 245 | 0.0 | 0.0 | 0.00 | 0.00 | 0.00 | 48 | 1025.8 |
| 20260501182401 | 61 | 245 | 0.0 | 0.0 | 0.00 | 0.00 | 0.00 | 48 | 1025.8 |
| 20260501182305 | 61 | 325 | 0.0 | 0.0 | 0.00 | 0.00 | 0.00 | 48 | 1025.8 |
| 20260501182201 | 61 | 325 | 0.0 | 0.0 | 0.00 | 0.00 | 0.00 | 48 | 1025.9 |
| 20260501182102 | 61 | 325 | 0.0 | 0.0 | 0.00 | 0.00 | 0.00 | 48 | 1025.9 |
| 20260501182001 | 61 | 305 | 3.0 | 0.0 | 0.00 | 0.00 | 0.00 | 47 | 1025.9 |
| 20260501181902 | 61 | 305 | 3.0 | 0.0 | 0.00 | 0.00 | 0.00 | 47 | 1025.9 |
| 20260501181802 | 61 | 305 | 3.0 | 0.0 | 0.00 | 0.00 | 0.00 | 47 | 1025.9 |
| 20260501181702 | 61 | 305 | 3.0 | 0.0 | 0.00 | 0.00 | 0.00 | 47 | 1025.9 |
| 20260501181602 | 61 | 305 | 3.0 | 0.0 | 0.00 | 0.00 | 0.00 | 47 | 1025.9 |
| 20260501181501 | 62 | 325 | 5.0 | 0.0 | 0.00 | 0.00 | 0.00 | 47 | 1025.9 |
| 20260501181402 | 62 | 325 | 5.0 | 0.0 | 0.00 | 0.00 | 0.00 | 47 | 1025.9 |
| 20260501181301 | 62 | 325 | 5.0 | 0.0 | 0.00 | 0.00 | 0.00 | 47 | 1025.9 |
| 20260501181202 | 62 | 305 | 5.0 | 0.0 | 0.00 | 0.00 | 0.00 | 47 | 1025.9 |
| 20260501181101 | 62 | 305 | 5.0 | 0.0 | 0.00 | 0.00 | 0.00 | 47 | 1025.9 |
| 20260501181002 | 62 | 307 | 0.0 | 0.0 | 0.00 | 0.00 | 0.00 | 47 | 1025.9 |
| 20260501180901 | 62 | 307 | 0.0 | 0.0 | 0.00 | 0.00 | 0.00 | 47 | 1025.9 |
| 20260501180802 | 62 | 307 | 0.0 | 0.0 | 0.00 | 0.00 | 0.00 | 47 | 1025.9 |
| 20260501180702 | 62 | 297 | 0.0 | 0.0 | 0.00 | 0.00 | 0.00 | 46 | 1025.9 |
| 20260501180601 | 62 | 297 | 0.0 | 0.0 | 0.00 | 0.00 | 0.00 | 46 | 1025.9 |
| 20260501180502 | 62 | 297 | 0.0 | 0.0 | 0.00 | 0.00 | 0.00 | 46 | 1025.9 |
| 20260501180401 | 62 | 25 | 4.0 | 0.0 | 0.00 | 0.00 | 0.00 | 46 | 1025.9 |
| 20260501180302 | 62 | 25 | 4.0 | 0.0 | 0.00 | 0.00 | 0.00 | 46 | 1025.9 |
| 20260501180201 | 62 | 25 | 4.0 | 0.0 | 0.00 | 0.00 | 0.00 | 46 | 1025.9 |
| 20260501180002 | 63 | 25 | 3.0 | 0.0 | 0.00 | 0.00 | 0.00 | 45 | 1025.9 |
| 20260501175901 | 63 | 25 | 3.0 | 0.0 | 0.00 | 0.00 | 0.00 | 45 | 1025.9 |
| 20260501175802 | 63 | 25 | 3.0 | 0.0 | 0.00 | 0.00 | 0.00 | 45 | 1025.9 |
| 20260501175701 | 63 | 25 | 3.0 | 0.0 | 0.00 | 0.00 | 0.00 | 45 | 1025.8 |
| 20260501175602 | 63 | 25 | 3.0 | 0.0 | 0.00 | 0.00 | 0.00 | 45 | 1025.9 |
| 20260501175501 | 63 | 25 | 3.0 | 0.0 | 0.00 | 0.00 | 0.00 | 45 | 1025.8 |
| 20260501175402 | 63 | 25 | 3.0 | 0.0 | 0.00 | 0.00 | 0.00 | 45 | 1025.8 |
| 20260501175302 | 63 | 25 | 3.0 | 0.0 | 0.00 | 0.00 | 0.00 | 45 | 1025.8 |
| 20260501175202 | 63 | 25 | 3.0 | 0.0 | 0.00 | 0.00 | 0.00 | 45 | 1025.8 |
| 20260501175102 | 63 | 347 | 0.0 | 0.0 | 0.00 | 0.00 | 0.00 | 45 | 1025.8 |
| 20260501175001 | 63 | 347 | 0.0 | 0.0 | 0.00 | 0.00 | 0.00 | 45 | 1025.8 |
| 20260501174902 | 64 | 15 | 0.0 | 0.0 | 0.00 | 0.00 | 0.00 | 45 | 1025.8 |
| 20260501174801 | 64 | 15 | 0.0 | 0.0 | 0.00 | 0.00 | 0.00 | 45 | 1025.7 |
| 20260501174702 | 64 | 315 | 6.0 | 0.0 | 0.00 | 0.00 | 0.00 | 44 | 1025.8 |
| 20260501174602 | 64 | 315 | 6.0 | 0.0 | 0.00 | 0.00 | 0.00 | 44 | 1025.8 |
| 20260501174502 | 64 | 315 | 6.0 | 0.0 | 0.00 | 0.00 | 0.00 | 44 | 1025.7 |
| 20260501174401 | 64 | 320 | 4.0 | 0.0 | 0.00 | 0.00 | 0.00 | 43 | 1025.7 |
| 20260501174302 | 64 | 320 | 4.0 | 0.0 | 0.00 | 0.00 | 0.00 | 43 | 1025.7 |
| 20260501174202 | 64 | 320 | 4.0 | 0.0 | 0.00 | 0.00 | 0.00 | 43 | 1025.7 |
| 20260501174101 | 64 | 320 | 4.0 | 0.0 | 0.00 | 0.00 | 0.00 | 43 | 1025.8 |
| 20260501174002 | 64 | 320 | 4.0 | 0.0 | 0.00 | 0.00 | 0.00 | 43 | 1025.7 |
| 20260501173901 | 64 | 320 | 4.0 | 0.0 | 0.00 | 0.00 | 0.00 | 43 | 1025.7 |
| 20260501173802 | 64 | 320 | 4.0 | 0.0 | 0.00 | 0.00 | 0.00 | 43 | 1025.7 |
| 20260501173701 | 65 | 320 | 5.0 | 0.0 | 0.00 | 0.00 | 0.00 | 43 | 1025.7 |
| 20260501173602 | 65 | 320 | 5.0 | 0.0 | 0.00 | 0.00 | 0.00 | 43 | 1025.7 |
| 20260501173502 | 65 | 320 | 5.0 | 0.0 | 0.00 | 0.00 | 0.00 | 43 | 1025.8 |
| 20260501173402 | 65 | 315 | 6.0 | 0.0 | 0.00 | 0.00 | 0.00 | 43 | 1025.8 |
| 20260501173302 | 65 | 315 | 6.0 | 0.0 | 0.00 | 0.00 | 0.00 | 43 | 1025.8 |
| 20260501173201 | 65 | 315 | 6.0 | 0.0 | 0.00 | 0.00 | 0.00 | 43 | 1025.7 |
| 20260501173102 | 65 | 335 | 4.0 | 0.0 | 0.00 | 0.00 | 0.00 | 42 | 1025.8 |
| 20260501173001 | 65 | 335 | 4.0 | 0.0 | 0.00 | 0.00 | 0.00 | 42 | 1025.8 |
| 20260501172902 | 65 | 300 | 5.0 | 0.0 | 0.00 | 0.00 | 0.00 | 42 | 1025.8 |
| 20260501172801 | 65 | 300 | 5.0 | 0.0 | 0.00 | 0.00 | 0.00 | 42 | 1025.8 |
| 20260501172702 | 66 | 292 | 6.0 | 0.0 | 0.00 | 0.00 | 0.00 | 41 | 1025.9 |
| 20260501172603 | 66 | 292 | 6.0 | 0.0 | 0.00 | 0.00 | 0.00 | 41 | 1025.9 |
| 20260501172502 | 66 | 292 | 6.0 | 0.0 | 0.00 | 0.00 | 0.00 | 41 | 1025.9 |
| 20260501172402 | 66 | 317 | 5.0 | 0.0 | 0.00 | 0.00 | 0.00 | 41 | 1025.9 |
| 20260501172305 | 66 | 317 | 5.0 | 0.0 | 0.00 | 0.00 | 0.00 | 41 | 1025.9 |
| 20260501172205 | 66 | 315 | 5.0 | 0.0 | 0.00 | 0.00 | 0.00 | 41 | 1025.9 |
| 20260501172101 | 66 | 315 | 5.0 | 0.0 | 0.00 | 0.00 | 0.00 | 41 | 1025.9 |
| 20260501172002 | 66 | 315 | 5.0 | 0.0 | 0.00 | 0.00 | 0.00 | 41 | 1025.9 |
| 20260501171902 | 66 | 330 | 4.0 | 0.0 | 0.00 | 0.00 | 0.00 | 41 | 1025.9 |
| 20260501171802 | 66 | 330 | 4.0 | 0.0 | 0.00 | 0.00 | 0.00 | 41 | 1025.9 |
| 20260501171702 | 66 | 330 | 4.0 | 0.0 | 0.00 | 0.00 | 0.00 | 41 | 1025.9 |
| 20260501171601 | 66 | 350 | 6.0 | 0.0 | 0.00 | 0.00 | 0.00 | 41 | 1025.9 |
| 20260501171502 | 66 | 350 | 6.0 | 0.0 | 0.00 | 0.00 | 0.00 | 41 | 1026.0 |
| 20260501171401 | 66 | 305 | 4.0 | 0.0 | 0.00 | 0.00 | 0.00 | 41 | 1026.0 |
| 20260501171302 | 66 | 305 | 4.0 | 0.0 | 0.00 | 0.00 | 0.00 | 41 | 1026.0 |
| 20260501171201 | 66 | 305 | 4.0 | 0.0 | 0.00 | 0.00 | 0.00 | 41 | 1026.0 |
| 20260501171102 | 66 | 310 | 4.0 | 0.0 | 0.00 | 0.00 | 0.00 | 41 | 1026.0 |
| 20260501171002 | 66 | 310 | 4.0 | 0.0 | 0.00 | 0.00 | 0.00 | 41 | 1026.0 |
| 20260501170901 | 66 | 310 | 4.0 | 0.0 | 0.00 | 0.00 | 0.00 | 41 | 1026.0 |
| 20260501170802 | 66 | 330 | 4.0 | 0.0 | 0.00 | 0.00 | 0.00 | 41 | 1026.0 |
| 20260501170701 | 66 | 330 | 4.0 | 0.0 | 0.00 | 0.00 | 0.00 | 41 | 1026.0 |
| 20260501170602 | 66 | 332 | 4.0 | 0.0 | 0.00 | 0.00 | 0.00 | 41 | 1026.0 |
| 20260501170501 | 66 | 332 | 4.0 | 0.0 | 0.00 | 0.00 | 0.00 | 41 | 1026.0 |
| 20260501170402 | 66 | 340 | 6.0 | 0.0 | 0.00 | 0.00 | 0.00 | 41 | 1026.0 |
| 20260501170302 | 66 | 340 | 6.0 | 0.0 | 0.00 | 0.00 | 0.00 | 41 | 1026.0 |
| 20260501170201 | 66 | 357 | 5.0 | 0.0 | 0.00 | 0.00 | 0.00 | 41 | 1026.0 |
| 20260501170001 | 66 | 357 | 5.0 | 0.0 | 0.00 | 0.00 | 0.00 | 41 | 1026.0 |
| 20260501165902 | 66 | 350 | 8.0 | 0.0 | 0.00 | 0.00 | 0.00 | 40 | 1026.0 |
| 20260501165801 | 66 | 350 | 8.0 | 0.0 | 0.00 | 0.00 | 0.00 | 40 | 1026.0 |
| 20260501165702 | 66 | 350 | 8.0 | 0.0 | 0.00 | 0.00 | 0.00 | 40 | 1026.0 |
| 20260501165601 | 67 | 347 | 7.0 | 0.0 | 0.00 | 0.00 | 0.00 | 40 | 1026.0 |
| 20260501165502 | 67 | 347 | 7.0 | 0.0 | 0.00 | 0.00 | 0.00 | 40 | 1026.0 |
| 20260501165402 | 67 | 345 | 4.0 | 0.0 | 0.00 | 0.00 | 0.00 | 40 | 1026.0 |
| 20260501165305 | 67 | 345 | 4.0 | 0.0 | 0.00 | 0.00 | 0.00 | 40 | 1026.0 |
| 20260501165203 | 67 | 345 | 4.0 | 0.0 | 0.00 | 0.00 | 0.00 | 40 | 1026.1 |
| 20260501165101 | 67 | 350 | 5.0 | 0.0 | 0.00 | 0.00 | 0.00 | 39 | 1026.1 |
| 20260501165002 | 67 | 350 | 5.0 | 0.0 | 0.00 | 0.00 | 0.00 | 39 | 1026.1 |
| 20260501164902 | 67 | 350 | 5.0 | 0.0 | 0.00 | 0.00 | 0.00 | 39 | 1026.2 |
| 20260501164802 | 67 | 350 | 5.0 | 0.0 | 0.00 | 0.00 | 0.00 | 39 | 1026.2 |
| 20260501164701 | 67 | 350 | 5.0 | 0.0 | 0.00 | 0.00 | 0.00 | 39 | 1026.1 |
| 20260501164602 | 67 | 330 | 8.0 | 0.0 | 0.00 | 0.00 | 0.00 | 39 | 1026.1 |
| 20260501164501 | 67 | 330 | 8.0 | 0.0 | 0.00 | 0.00 | 0.00 | 39 | 1026.1 |
| 20260501164402 | 67 | 312 | 6.0 | 0.0 | 0.00 | 0.00 | 0.00 | 38 | 1026.2 |
| 20260501164302 | 67 | 312 | 6.0 | 0.0 | 0.00 | 0.00 | 0.00 | 38 | 1026.1 |
| 20260501164201 | 67 | 312 | 6.0 | 0.0 | 0.00 | 0.00 | 0.00 | 38 | 1026.1 |
| 20260501164102 | 68 | 325 | 5.0 | 0.0 | 0.00 | 0.00 | 0.00 | 38 | 1026.1 |
| 20260501164001 | 68 | 325 | 5.0 | 0.0 | 0.00 | 0.00 | 0.00 | 38 | 1026.2 |
| 20260501163902 | 68 | 312 | 5.0 | 0.0 | 0.00 | 0.00 | 0.00 | 39 | 1026.2 |
| 20260501163801 | 68 | 312 | 5.0 | 0.0 | 0.00 | 0.00 | 0.00 | 39 | 1026.2 |
| 20260501163702 | 68 | 312 | 5.0 | 0.0 | 0.00 | 0.00 | 0.00 | 39 | 1026.2 |
| 20260501163601 | 68 | 312 | 4.0 | 0.0 | 0.00 | 0.00 | 0.00 | 39 | 1026.2 |
| 20260501163502 | 68 | 312 | 4.0 | 0.0 | 0.00 | 0.00 | 0.00 | 39 | 1026.2 |
| 20260501163402 | 68 | 312 | 4.0 | 0.0 | 0.00 | 0.00 | 0.00 | 39 | 1026.2 |
| 20260501163302 | 68 | 320 | 5.0 | 0.0 | 0.00 | 0.00 | 0.00 | 39 | 1026.2 |
| 20260501163201 | 68 | 320 | 5.0 | 0.0 | 0.00 | 0.00 | 0.00 | 39 | 1026.2 |
| 20260501163102 | 68 | 310 | 8.0 | 0.0 | 0.00 | 0.00 | 0.00 | 39 | 1026.2 |
| 20260501163002 | 68 | 310 | 8.0 | 0.0 | 0.00 | 0.00 | 0.00 | 39 | 1026.2 |
| 20260501162902 | 68 | 310 | 8.0 | 0.0 | 0.00 | 0.00 | 0.00 | 39 | 1026.2 |
| 20260501162802 | 68 | 310 | 8.0 | 0.0 | 0.00 | 0.00 | 0.00 | 39 | 1026.3 |
| 20260501162702 | 68 | 310 | 8.0 | 0.0 | 0.00 | 0.00 | 0.00 | 39 | 1026.2 |
| 20260501162602 | 68 | 310 | 8.0 | 0.0 | 0.00 | 0.00 | 0.00 | 39 | 1026.3 |
| 20260501162501 | 68 | 295 | 4.0 | 0.0 | 0.00 | 0.00 | 0.00 | 39 | 1026.2 |
| 20260501162402 | 68 | 295 | 4.0 | 0.0 | 0.00 | 0.00 | 0.00 | 39 | 1026.3 |
| 20260501162305 | 68 | 295 | 4.0 | 0.0 | 0.00 | 0.00 | 0.00 | 39 | 1026.3 |
| 20260501162202 | 68 | 307 | 3.0 | 0.0 | 0.00 | 0.00 | 0.00 | 39 | 1026.3 |
| 20260501162101 | 68 | 307 | 3.0 | 0.0 | 0.00 | 0.00 | 0.00 | 39 | 1026.3 |
| 20260501162002 | 68 | 302 | 4.0 | 0.0 | 0.00 | 0.00 | 0.00 | 38 | 1026.3 |
| 20260501161902 | 68 | 302 | 4.0 | 0.0 | 0.00 | 0.00 | 0.00 | 38 | 1026.3 |
| 20260501161801 | 68 | 290 | 5.0 | 0.0 | 0.00 | 0.00 | 0.00 | 38 | 1026.3 |
| 20260501161702 | 68 | 290 | 5.0 | 0.0 | 0.00 | 0.00 | 0.00 | 38 | 1026.3 |
| 20260501161601 | 68 | 290 | 5.0 | 0.0 | 0.00 | 0.00 | 0.00 | 38 | 1026.3 |
| 20260501161502 | 68 | 290 | 5.0 | 0.0 | 0.00 | 0.00 | 0.00 | 38 | 1026.3 |
| 20260501161401 | 68 | 290 | 5.0 | 0.0 | 0.00 | 0.00 | 0.00 | 38 | 1026.4 |
| 20260501161302 | 68 | 280 | 7.0 | 0.0 | 0.00 | 0.00 | 0.00 | 38 | 1026.4 |
| 20260501161202 | 68 | 280 | 7.0 | 0.0 | 0.00 | 0.00 | 0.00 | 38 | 1026.4 |
| 20260501161102 | 68 | 295 | 6.0 | 0.0 | 0.00 | 0.00 | 0.00 | 39 | 1026.4 |
| 20260501161002 | 68 | 295 | 6.0 | 0.0 | 0.00 | 0.00 | 0.00 | 39 | 1026.4 |
| 20260501160901 | 68 | 295 | 6.0 | 0.0 | 0.00 | 0.00 | 0.00 | 39 | 1026.4 |
| 20260501160802 | 68 | 295 | 6.0 | 0.0 | 0.00 | 0.00 | 0.00 | 39 | 1026.4 |
| 20260501160701 | 68 | 295 | 6.0 | 0.0 | 0.00 | 0.00 | 0.00 | 39 | 1026.4 |
| 20260501160602 | 68 | 295 | 6.0 | 0.0 | 0.00 | 0.00 | 0.00 | 39 | 1026.5 |
| 20260501160501 | 68 | 295 | 6.0 | 0.0 | 0.00 | 0.00 | 0.00 | 39 | 1026.5 |
| 20260501160402 | 68 | 295 | 6.0 | 0.0 | 0.00 | 0.00 | 0.00 | 39 | 1026.5 |
| 20260501160302 | 68 | 332 | 4.0 | 0.0 | 0.00 | 0.00 | 0.00 | 39 | 1026.5 |
| 20260501160202 | 68 | 332 | 4.0 | 0.0 | 0.00 | 0.00 | 0.00 | 39 | 1026.5 |
| 20260501160001 | 68 | 330 | 8.0 | 0.0 | 0.00 | 0.00 | 0.00 | 39 | 1026.5 |
| 20260501155902 | 68 | 330 | 8.0 | 0.0 | 0.00 | 0.00 | 0.00 | 39 | 1026.5 |
| 20260501155801 | 67 | 350 | 7.0 | 0.0 | 0.00 | 0.00 | 0.00 | 38 | 1026.5 |
| 20260501155702 | 67 | 350 | 7.0 | 0.0 | 0.00 | 0.00 | 0.00 | 38 | 1026.5 |
| 20260501155602 | 67 | 350 | 7.0 | 0.0 | 0.00 | 0.00 | 0.00 | 38 | 1026.5 |
| 20260501155501 | 67 | 350 | 7.0 | 0.0 | 0.00 | 0.00 | 0.00 | 38 | 1026.6 |
| 20260501155402 | 67 | 350 | 7.0 | 0.0 | 0.00 | 0.00 | 0.00 | 38 | 1026.5 |
| 20260501155305 | 67 | 342 | 7.0 | 0.0 | 0.00 | 0.00 | 0.00 | 39 | 1026.5 |
| 20260501155202 | 67 | 342 | 7.0 | 0.0 | 0.00 | 0.00 | 0.00 | 39 | 1026.6 |
| 20260501155101 | 67 | 342 | 7.0 | 0.0 | 0.00 | 0.00 | 0.00 | 39 | 1026.6 |
| 20260501155006 | 67 | 302 | 7.0 | 0.0 | 0.00 | 0.00 | 0.00 | 38 | 1026.5 |
| 20260501154902 | 67 | 302 | 7.0 | 0.0 | 0.00 | 0.00 | 0.00 | 38 | 1026.6 |
| 20260501154801 | 67 | 355 | 7.0 | 0.0 | 0.00 | 0.00 | 0.00 | 39 | 1026.6 |
| 20260501154702 | 67 | 355 | 7.0 | 0.0 | 0.00 | 0.00 | 0.00 | 39 | 1026.6 |
| 20260501154601 | 67 | 355 | 7.0 | 0.0 | 0.00 | 0.00 | 0.00 | 39 | 1026.6 |
| 20260501154502 | 67 | 355 | 7.0 | 0.0 | 0.00 | 0.00 | 0.00 | 39 | 1026.6 |
| 20260501154401 | 67 | 355 | 7.0 | 0.0 | 0.00 | 0.00 | 0.00 | 39 | 1026.6 |
| 20260501154302 | 67 | 342 | 8.0 | 0.0 | 0.00 | 0.00 | 0.00 | 38 | 1026.6 |
| 20260501154202 | 67 | 342 | 8.0 | 0.0 | 0.00 | 0.00 | 0.00 | 38 | 1026.6 |
| 20260501154102 | 67 | 342 | 8.0 | 0.0 | 0.00 | 0.00 | 0.00 | 38 | 1026.6 |
| 20260501154002 | 68 | 330 | 6.0 | 0.0 | 0.00 | 0.00 | 0.00 | 38 | 1026.6 |
| 20260501153901 | 68 | 330 | 6.0 | 0.0 | 0.00 | 0.00 | 0.00 | 38 | 1026.6 |
| 20260501153802 | 68 | 330 | 6.0 | 0.0 | 0.00 | 0.00 | 0.00 | 38 | 1026.6 |
| 20260501153701 | 69 | 315 | 13.0 | 0.0 | 0.00 | 0.00 | 0.00 | 37 | 1026.8 |
| 20260501153602 | 69 | 315 | 4.0 | 0.0 | 0.00 | 0.00 | 0.00 | 38 | 1026.6 |
| 20260501153502 | 68 | 330 | 0.0 | 0.0 | 0.00 | 0.00 | 0.00 | 38 | 1026.8 |
| 20260501153402 | 68 | 330 | 0.0 | 0.0 | 0.00 | 0.00 | 0.00 | 38 | 1026.8 |
| 20260501153302 | 68 | 347 | 4.0 | 0.0 | 0.00 | 0.00 | 0.00 | 40 | 1026.8 |
| 20260501153201 | 68 | 347 | 4.0 | 0.0 | 0.00 | 0.00 | 0.00 | 40 | 1026.8 |
| 20260501153102 | 68 | 347 | 4.0 | 0.0 | 0.00 | 0.00 | 0.00 | 40 | 1026.8 |
| 20260501153001 | 68 | 17 | 5.0 | 0.0 | 0.00 | 0.00 | 0.00 | 41 | 1026.8 |
| 20260501152902 | 68 | 17 | 5.0 | 0.0 | 0.00 | 0.00 | 0.00 | 41 | 1026.8 |
| 20260501152801 | 68 | 17 | 5.0 | 0.0 | 0.00 | 0.00 | 0.00 | 41 | 1026.8 |
| 20260501152702 | 67 | 7 | 3.0 | 0.0 | 0.00 | 0.00 | 0.00 | 39 | 1026.9 |
| 20260501152602 | 67 | 7 | 3.0 | 0.0 | 0.00 | 0.00 | 0.00 | 39 | 1026.9 |
| 20260501152501 | 67 | 12 | 3.0 | 0.0 | 0.00 | 0.00 | 0.00 | 40 | 1026.9 |
| 20260501152402 | 67 | 12 | 3.0 | 0.0 | 0.00 | 0.00 | 0.00 | 40 | 1026.9 |
| 20260501152301 | 67 | 20 | 6.0 | 0.0 | 0.00 | 0.00 | 0.00 | 39 | 1026.9 |
| 20260501152202 | 67 | 20 | 6.0 | 0.0 | 0.00 | 0.00 | 0.00 | 39 | 1026.9 |
| 20260501152101 | 67 | 20 | 6.0 | 0.0 | 0.00 | 0.00 | 0.00 | 39 | 1026.9 |
| 20260501152002 | 67 | 10 | 10.0 | 0.0 | 0.00 | 0.00 | 0.00 | 38 | 1027.0 |
| 20260501151902 | 67 | 10 | 10.0 | 0.0 | 0.00 | 0.00 | 0.00 | 38 | 1026.9 |
| 20260501151801 | 68 | 0 | 4.0 | 0.0 | 0.00 | 0.00 | 0.00 | 39 | 1026.9 |
| 20260501151702 | 68 | 0 | 4.0 | 0.0 | 0.00 | 0.00 | 0.00 | 39 | 1026.9 |
| 20260501151601 | 68 | 0 | 4.0 | 0.0 | 0.00 | 0.00 | 0.00 | 39 | 1027.0 |
| 20260501151502 | 68 | 357 | 5.0 | 0.0 | 0.00 | 0.00 | 0.00 | 39 | 1027.0 |
| 20260501151402 | 68 | 357 | 5.0 | 0.0 | 0.00 | 0.00 | 0.00 | 39 | 1027.0 |
| 20260501151302 | 68 | 357 | 6.0 | 0.0 | 0.00 | 0.00 | 0.00 | 38 | 1027.0 |
| 20260501151202 | 67 | 350 | 5.0 | 0.0 | 0.00 | 0.00 | 0.00 | 37 | 1027.0 |
| 20260501151101 | 67 | 350 | 5.0 | 0.0 | 0.00 | 0.00 | 0.00 | 37 | 1027.0 |
| 20260501151002 | 68 | 0 | 7.0 | 0.0 | 0.00 | 0.00 | 0.00 | 37 | 1027.0 |
| 20260501150901 | 68 | 0 | 7.0 | 0.0 | 0.00 | 0.00 | 0.00 | 37 | 1027.1 |
| 20260501150802 | 68 | 0 | 7.0 | 0.0 | 0.00 | 0.00 | 0.00 | 37 | 1027.0 |
| 20260501150701 | 68 | 352 | 5.0 | 0.0 | 0.00 | 0.00 | 0.00 | 38 | 1027.1 |
| 20260501150602 | 68 | 352 | 5.0 | 0.0 | 0.00 | 0.00 | 0.00 | 38 | 1027.1 |
| 20260501150502 | 68 | 352 | 5.0 | 0.0 | 0.00 | 0.00 | 0.00 | 38 | 1027.1 |
| 20260501150401 | 67 | 20 | 6.0 | 0.0 | 0.00 | 0.00 | 0.00 | 39 | 1027.1 |
| 20260501150302 | 67 | 20 | 6.0 | 0.0 | 0.00 | 0.00 | 0.00 | 39 | 1027.1 |
| 20260501150201 | 67 | 20 | 6.0 | 0.0 | 0.00 | 0.00 | 0.00 | 39 | 1027.1 |
| 20260501150001 | 67 | 22 | 4.0 | 0.0 | 0.00 | 0.00 | 0.00 | 37 | 1027.1 |
| 20260501145902 | 67 | 22 | 4.0 | 0.0 | 0.00 | 0.00 | 0.00 | 37 | 1027.2 |
| 20260501145802 | 67 | 22 | 4.0 | 0.0 | 0.00 | 0.00 | 0.00 | 37 | 1027.1 |
| 20260501145702 | 67 | 2 | 7.0 | 0.0 | 0.00 | 0.00 | 0.00 | 37 | 1027.2 |
| 20260501145602 | 67 | 2 | 7.0 | 0.0 | 0.00 | 0.00 | 0.00 | 37 | 1027.2 |
| 20260501145501 | 67 | 2 | 7.0 | 0.0 | 0.00 | 0.00 | 0.00 | 37 | 1027.2 |
| 20260501145402 | 68 | 337 | 7.0 | 0.0 | 0.00 | 0.00 | 0.00 | 37 | 1027.2 |
| 20260501145301 | 68 | 337 | 7.0 | 0.0 | 0.00 | 0.00 | 0.00 | 37 | 1027.2 |
| 20260501145202 | 68 | 337 | 7.0 | 0.0 | 0.00 | 0.00 | 0.00 | 37 | 1027.2 |